Time,TemperatureF,DewpointF,PressureIn,WindDirection,WindDirectionDegrees,WindSpeedMPH,WindSpeedGustMPH,Humidity,HourlyPrecipIn,Conditions,Clouds,dailyrainin,SoftwareType,DateUTC
2013-04-07 00:00:00,32.2,32.2,29.52,West,275,1.0,4.0,100,0.01,,,0.32,VWS V12.07,2013-04-07 05:00:00,
2013-04-07 00:04:00,32.2,32.2,29.52,WNW,301,0.0,4.0,100,0.01,,,0.32,VWS V12.07,2013-04-07 05:04:00,
2013-04-07 00:05:00,32.2,32.2,29.52,WNW,301,0.0,4.0,100,0.01,,,0.32,VWS V12.07,2013-04-07 05:05:00,
2013-04-07 00:09:00,32.2,32.2,29.52,WNW,301,1.0,4.0,100,0.01,,,0.32,VWS V12.07,2013-04-07 05:09:00,
2013-04-07 00:10:00,32.2,32.2,29.52,WNW,291,1.0,4.0,100,0.01,,,0.32,VWS V12.07,2013-04-07 05:10:00,
2013-04-07 00:11:00,32.2,32.2,29.52,WNW,291,0.0,4.0,100,0.01,,,0.32,VWS V12.07,2013-04-07 05:11:00,
2013-04-07 00:15:00,32.2,32.2,29.52,WNW,291,0.0,4.0,100,0.01,,,0.32,VWS V12.07,2013-04-07 05:15:00,
2013-04-07 00:16:00,32.2,32.2,29.52,WNW,292,1.0,4.0,100,0.01,,,0.32,VWS V12.07,2013-04-07 05:16:00,
2013-04-07 00:17:00,32.2,32.2,29.52,WNW,291,0.0,4.0,100,0.01,,,0.32,VWS V12.07,2013-04-07 05:17:00,
2013-04-07 00:20:00,31.8,31.8,29.53,NW,309,0.0,3.0,100,0.00,,,0.00,VWS V12.07,2013-04-07 05:20:00,
2013-04-07 00:21:00,32.2,32.2,29.52,WNW,291,0.0,4.0,100,0.01,,,0.32,VWS V12.07,2013-04-07 05:21:00,
2013-04-07 00:22:00,32.1,32.1,29.52,WNW,291,0.0,4.0,100,0.01,,,0.32,VWS V12.07,2013-04-07 05:22:00,
2013-04-07 00:23:00,32.1,32.1,29.52,WNW,291,0.0,4.0,100,0.01,,,0.32,VWS V12.07,2013-04-07 05:23:00,
2013-04-07 00:26:00,32.1,32.1,29.52,SW,234,0.0,4.0,100,0.01,,,0.32,VWS V12.07,2013-04-07 05:26:00,
2013-04-07 00:27:00,32.1,32.1,29.52,SW,234,0.0,4.0,100,0.01,,,0.32,VWS V12.07,2013-04-07 05:27:00,
2013-04-07 00:28:00,32.1,32.1,29.52,North,4,1.0,4.0,100,0.01,,,0.32,VWS V12.07,2013-04-07 05:28:00,
2013-04-07 00:30:00,31.5,31.5,29.54,NW,321,0.0,2.0,100,0.00,,,0.00,VWS V12.07,2013-04-07 05:30:00,
2013-04-07 00:31:00,32.1,32.1,29.53,NNW,337,2.0,4.0,100,0.01,,,0.32,VWS V12.07,2013-04-07 05:31:00,
2013-04-07 00:32:00,32.1,32.1,29.53,NNW,338,0.0,4.0,100,0.01,,,0.32,VWS V12.07,2013-04-07 05:32:00,
2013-04-07 00:33:00,32.1,32.1,29.53,North,358,1.0,4.0,100,0.01,,,0.32,VWS V12.07,2013-04-07 05:33:00,
2013-04-07 00:34:00,32.1,32.1,29.53,NNW,338,1.0,4.0,100,0.01,,,0.32,VWS V12.07,2013-04-07 05:34:00,
2013-04-07 00:37:00,31.9,31.9,29.53,West,276,0.0,4.0,100,0.01,,,0.32,VWS V12.07,2013-04-07 05:37:00,
2013-04-07 00:39:00,31.9,31.9,29.53,West,276,0.0,4.0,100,0.01,,,0.32,VWS V12.07,2013-04-07 05:39:00,
2013-04-07 00:40:00,31.3,31.3,29.54,SSW,193,0.0,2.0,100,0.00,,,0.00,VWS V12.07,2013-04-07 05:40:00,
2013-04-07 00:42:00,31.9,31.9,29.53,NNE,23,0.0,4.0,100,0.01,,,0.32,VWS V12.07,2013-04-07 05:42:00,
2013-04-07 00:44:00,31.9,31.9,29.53,NE,56,0.0,4.0,100,0.01,,,0.32,VWS V12.07,2013-04-07 05:44:00,
2013-04-07 00:45:00,31.9,31.9,29.53,NE,56,0.0,4.0,100,0.01,,,0.32,VWS V12.07,2013-04-07 05:45:00,
2013-04-07 00:47:00,31.9,31.9,29.53,NNW,333,0.0,4.0,100,0.00,,,0.00,VWS V12.07,2013-04-07 05:47:00,
2013-04-07 00:48:00,31.9,31.9,29.53,NNW,333,1.0,4.0,100,0.00,,,0.00,VWS V12.07,2013-04-07 05:48:00,
2013-04-07 00:49:00,31.9,31.9,29.53,NNW,332,0.0,4.0,100,0.00,,,0.00,VWS V12.07,2013-04-07 05:49:00,
2013-04-07 00:50:00,31.9,31.9,29.53,NNW,332,0.0,4.0,100,0.00,,,0.00,VWS V12.07,2013-04-07 05:50:00,
2013-04-07 00:53:00,31.9,31.9,29.53,North,0,0.0,4.0,100,0.00,,,0.00,VWS V12.07,2013-04-07 05:53:00,
2013-04-07 00:55:00,31.9,31.9,29.53,NE,37,1.0,4.0,100,0.00,,,0.00,VWS V12.07,2013-04-07 05:55:00,
2013-04-07 00:58:00,31.8,31.8,29.53,NNE,30,1.0,4.0,100,0.00,,,0.00,VWS V12.07,2013-04-07 05:58:00,
2013-04-07 01:00:00,31.8,31.8,29.53,WNW,299,0.0,4.0,100,0.00,,,0.00,VWS V12.07,2013-04-07 06:00:00,
2013-04-07 01:03:00,31.8,31.8,29.53,WNW,295,2.0,4.0,100,0.00,,,0.00,VWS V12.07,2013-04-07 06:03:00,
2013-04-07 01:04:00,31.8,31.8,29.53,NW,309,1.0,4.0,100,0.00,,,0.00,VWS V12.07,2013-04-07 06:04:00,
2013-04-07 01:05:00,31.8,31.8,29.53,NW,309,0.0,4.0,100,0.00,,,0.00,VWS V12.07,2013-04-07 06:05:00,
2013-04-07 01:06:00,31.8,31.8,29.53,NW,309,0.0,4.0,100,0.00,,,0.00,VWS V12.07,2013-04-07 06:06:00,
2013-04-07 01:08:00,31.6,31.6,29.53,NW,309,1.0,4.0,100,0.00,,,0.00,VWS V12.07,2013-04-07 06:08:00,
2013-04-07 01:09:00,31.6,31.6,29.53,WNW,292,1.0,4.0,100,0.00,,,0.00,VWS V12.07,2013-04-07 06:09:00,
2013-04-07 01:10:00,31.6,31.6,29.53,WNW,292,0.0,4.0,100,0.00,,,0.00,VWS V12.07,2013-04-07 06:10:00,
2013-04-07 01:11:00,31.6,31.6,29.53,WNW,292,1.0,4.0,100,0.00,,,0.00,VWS V12.07,2013-04-07 06:11:00,
2013-04-07 01:14:00,31.5,31.5,29.54,NW,321,0.0,4.0,100,0.00,,,0.00,VWS V12.07,2013-04-07 06:14:00,
2013-04-07 01:15:00,31.5,31.5,29.54,NW,321,0.0,4.0,100,0.00,,,0.00,VWS V12.07,2013-04-07 06:15:00,
2013-04-07 01:16:00,31.5,31.5,29.54,NW,321,0.0,4.0,100,0.00,,,0.00,VWS V12.07,2013-04-07 06:16:00,
2013-04-07 01:19:00,31.3,31.3,29.54,West,268,0.0,4.0,100,0.00,,,0.00,VWS V12.07,2013-04-07 06:19:00,
2013-04-07 01:20:00,31.3,31.3,29.54,NW,309,0.0,4.0,100,0.00,,,0.00,VWS V12.07,2013-04-07 06:20:00,
2013-04-07 01:21:00,31.3,31.3,29.54,NW,308,0.0,4.0,100,0.00,,,0.00,VWS V12.07,2013-04-07 06:21:00,
2013-04-07 01:24:00,31.3,31.3,29.54,SSW,193,0.0,4.0,100,0.00,,,0.00,VWS V12.07,2013-04-07 06:24:00,
2013-04-07 01:26:00,31.2,31.2,29.54,WSW,241,0.0,4.0,100,0.00,,,0.00,VWS V12.07,2013-04-07 06:26:00,
2013-04-07 01:27:00,31.2,31.2,29.54,WSW,241,0.0,4.0,100,0.00,,,0.00,VWS V12.07,2013-04-07 06:27:00,
2013-04-07 01:29:00,31.2,31.2,29.55,West,277,0.0,4.0,100,0.00,,,0.00,VWS V12.07,2013-04-07 06:29:00,
2013-04-07 01:30:00,30.4,30.4,29.57,West,259,0.0,7.0,100,0.00,,,0.00,VWS V12.07,2013-04-07 06:30:00,
2013-04-07 01:32:00,31.2,31.2,29.55,NNE,30,0.0,4.0,100,0.00,,,0.00,VWS V12.07,2013-04-07 06:32:00,
2013-04-07 01:34:00,31.2,31.2,29.55,NE,35,0.0,4.0,100,0.00,,,0.00,VWS V12.07,2013-04-07 06:34:00,
2013-04-07 01:35:00,31.0,31.0,29.55,NE,35,1.0,4.0,100,0.00,,,0.00,VWS V12.07,2013-04-07 06:35:00,
2013-04-07 01:37:00,31.0,31.0,29.55,NE,35,0.0,4.0,100,0.00,,,0.00,VWS V12.07,2013-04-07 06:37:00,
2013-04-07 01:40:00,31.0,31.0,29.55,NW,323,1.0,4.0,100,0.00,,,0.00,VWS V12.07,2013-04-07 06:40:00,
2013-04-07 01:42:00,31.0,31.0,29.55,East,83,1.0,4.0,100,0.00,,,0.00,VWS V12.07,2013-04-07 06:42:00,
2013-04-07 01:45:00,30.9,30.9,29.56,NE,34,0.0,4.0,100,0.00,,,0.00,VWS V12.07,2013-04-07 06:45:00,
2013-04-07 01:47:00,30.9,30.9,29.56,NE,34,0.0,4.0,100,0.00,,,0.00,VWS V12.07,2013-04-07 06:47:00,
2013-04-07 01:50:00,30.9,30.9,29.56,WNW,302,0.0,4.0,100,0.00,,,0.00,VWS V12.07,2013-04-07 06:50:00,
2013-04-07 01:52:00,30.7,30.7,29.56,WNW,302,0.0,4.0,100,0.00,,,0.00,VWS V12.07,2013-04-07 06:52:00,
2013-04-07 01:55:00,30.7,30.7,29.56,NNW,328,1.0,4.0,100,0.00,,,0.00,VWS V12.07,2013-04-07 06:55:00,
2013-04-07 01:56:00,30.7,30.7,29.56,West,262,2.0,4.0,100,0.00,,,0.00,VWS V12.07,2013-04-07 06:56:00,
2013-04-07 01:57:00,30.6,30.6,29.56,North,4,1.0,4.0,100,0.00,,,0.00,VWS V12.07,2013-04-07 06:57:00,
2013-04-07 01:58:00,30.6,30.6,29.56,North,6,1.0,4.0,100,0.00,,,0.00,VWS V12.07,2013-04-07 06:58:00,
2013-04-07 02:00:00,30.6,30.6,29.55,North,6,0.0,4.0,100,0.00,,,0.00,VWS V12.07,2013-04-07 07:00:00,
2013-04-07 02:01:00,30.6,30.6,29.55,NW,320,0.0,4.0,100,0.00,,,0.00,VWS V12.07,2013-04-07 07:01:00,
2013-04-07 02:02:00,30.6,30.6,29.55,NW,320,0.0,4.0,100,0.00,,,0.00,VWS V12.07,2013-04-07 07:02:00,
2013-04-07 02:03:00,30.6,30.6,29.55,NW,311,2.0,4.0,100,0.00,,,0.00,VWS V12.07,2013-04-07 07:03:00,
2013-04-07 02:05:00,30.6,30.6,29.55,North,0,4.0,7.0,100,0.00,,,0.00,VWS V12.07,2013-04-07 07:05:00,
2013-04-07 02:06:00,30.6,30.6,29.55,North,0,0.0,7.0,100,0.00,,,0.00,VWS V12.07,2013-04-07 07:06:00,
2013-04-07 02:08:00,30.6,30.6,29.55,NNW,338,0.0,7.0,100,0.00,,,0.00,VWS V12.07,2013-04-07 07:08:00,
2013-04-07 02:09:00,30.6,30.6,29.55,NNW,338,0.0,7.0,100,0.00,,,0.00,VWS V12.07,2013-04-07 07:09:00,
2013-04-07 02:10:00,30.4,30.4,29.55,South,174,2.0,7.0,100,0.00,,,0.00,VWS V12.07,2013-04-07 07:10:00,
2013-04-07 02:11:00,30.4,30.4,29.55,North,357,0.0,7.0,100,0.00,,,0.00,VWS V12.07,2013-04-07 07:11:00,
2013-04-07 02:15:00,30.4,30.4,29.57,West,259,0.0,7.0,100,0.00,,,0.00,VWS V12.07,2013-04-07 07:15:00,
2013-04-07 02:17:00,30.3,30.3,29.57,West,259,0.0,7.0,100,0.00,,,0.00,VWS V12.07,2013-04-07 07:17:00,
2013-04-07 02:20:00,30.3,30.3,29.57,SW,236,0.0,7.0,100,0.00,,,0.00,VWS V12.07,2013-04-07 07:20:00,
2013-04-07 02:21:00,30.3,30.3,29.57,West,262,1.0,7.0,100,0.00,,,0.00,VWS V12.07,2013-04-07 07:21:00,
2013-04-07 02:22:00,30.3,30.3,29.57,WNW,290,0.0,7.0,100,0.00,,,0.00,VWS V12.07,2013-04-07 07:22:00,
2013-04-07 02:25:00,30.3,30.3,29.57,WNW,302,0.0,7.0,100,0.00,,,0.00,VWS V12.07,2013-04-07 07:25:00,
2013-04-07 02:26:00,30.3,30.3,29.57,North,10,1.0,7.0,100,0.00,,,0.00,VWS V12.07,2013-04-07 07:26:00,
2013-04-07 02:27:00,30.3,30.3,29.57,North,10,0.0,7.0,100,0.00,,,0.00,VWS V12.07,2013-04-07 07:27:00,
2013-04-07 02:30:00,30.3,30.3,29.58,North,10,0.0,7.0,100,0.00,,,0.00,VWS V12.07,2013-04-07 07:30:00,
2013-04-07 02:32:00,30.3,30.3,29.58,North,10,0.0,7.0,100,0.00,,,0.00,VWS V12.07,2013-04-07 07:32:00,
2013-04-07 02:33:00,30.3,30.3,29.58,North,10,0.0,7.0,100,0.00,,,0.00,VWS V12.07,2013-04-07 07:33:00,
2013-04-07 02:35:00,30.3,30.3,29.58,North,0,0.0,7.0,100,0.00,,,0.00,VWS V12.07,2013-04-07 07:35:00,
2013-04-07 02:36:00,30.3,30.3,29.58,North,0,0.0,7.0,100,0.00,,,0.00,VWS V12.07,2013-04-07 07:36:00,
2013-04-07 02:37:00,30.3,30.3,29.58,SE,140,0.0,7.0,100,0.00,,,0.00,VWS V12.07,2013-04-07 07:37:00,
2013-04-07 02:38:00,30.3,30.3,29.58,NW,323,1.0,7.0,100,0.00,,,0.00,VWS V12.07,2013-04-07 07:38:00,
2013-04-07 02:40:00,30.1,30.1,29.58,WNW,300,0.0,7.0,100,0.00,,,0.00,VWS V12.07,2013-04-07 07:40:00,
2013-04-07 02:41:00,30.1,30.1,29.58,NNW,338,0.0,7.0,100,0.00,,,0.00,VWS V12.07,2013-04-07 07:41:00,
2013-04-07 02:42:00,30.1,30.1,29.58,WNW,302,1.0,7.0,100,0.00,,,0.00,VWS V12.07,2013-04-07 07:42:00,
2013-04-07 02:43:00,30.1,30.1,29.58,North,1,1.0,7.0,100,0.00,,,0.00,VWS V12.07,2013-04-07 07:43:00,
2013-04-07 02:46:00,30.1,30.1,29.58,North,1,0.0,7.0,100,0.00,,,0.00,VWS V12.07,2013-04-07 07:46:00,
2013-04-07 02:47:00,30.1,30.1,29.58,West,264,1.0,7.0,100,0.00,,,0.00,VWS V12.07,2013-04-07 07:47:00,
2013-04-07 02:48:00,30.1,30.1,29.58,West,265,2.0,7.0,100,0.00,,,0.00,VWS V12.07,2013-04-07 07:48:00,
2013-04-07 02:49:00,30.1,30.1,29.58,WNW,285,1.0,7.0,100,0.00,,,0.00,VWS V12.07,2013-04-07 07:49:00,
2013-04-07 02:52:00,30.1,30.1,29.58,NNE,32,0.0,7.0,100,0.00,,,0.00,VWS V12.07,2013-04-07 07:52:00,
2013-04-07 02:53:00,30.1,30.1,29.58,NE,34,0.0,7.0,100,0.00,,,0.00,VWS V12.07,2013-04-07 07:53:00,
2013-04-07 02:54:00,30.1,30.1,29.58,NE,34,0.0,7.0,100,0.00,,,0.00,VWS V12.07,2013-04-07 07:54:00,
2013-04-07 02:57:00,30.0,29.8,29.58,SW,224,0.0,7.0,99,0.00,,,0.00,VWS V12.07,2013-04-07 07:57:00,
2013-04-07 02:58:00,30.0,29.8,29.58,WNW,284,2.0,7.0,99,0.00,,,0.00,VWS V12.07,2013-04-07 07:58:00,
2013-04-07 02:59:00,30.0,29.8,29.58,NW,311,1.0,7.0,99,0.00,,,0.00,VWS V12.07,2013-04-07 07:59:00,
2013-04-07 03:00:00,30.1,30.1,29.58,North,1,0.0,2.0,100,0.00,,,0.00,VWS V12.07,2013-04-07 08:00:00,
2013-04-07 03:03:00,29.8,29.5,29.58,WNW,301,2.0,7.0,99,0.00,,,0.00,VWS V12.07,2013-04-07 08:03:00,
2013-04-07 03:04:00,29.8,29.5,29.58,WNW,301,1.0,7.0,99,0.00,,,0.00,VWS V12.07,2013-04-07 08:04:00,
2013-04-07 03:05:00,29.8,29.5,29.58,NW,315,1.0,7.0,99,0.00,,,0.00,VWS V12.07,2013-04-07 08:05:00,
2013-04-07 03:08:00,29.7,29.5,29.58,WNW,302,1.0,7.0,99,0.00,,,0.00,VWS V12.07,2013-04-07 08:08:00,
2013-04-07 03:09:00,29.7,29.5,29.58,WNW,302,0.0,7.0,99,0.00,,,0.00,VWS V12.07,2013-04-07 08:09:00,
2013-04-07 03:10:00,29.7,29.5,29.58,NNE,26,1.0,7.0,99,0.00,,,0.00,VWS V12.07,2013-04-07 08:10:00,
2013-04-07 03:14:00,29.7,29.2,29.60,WNW,291,1.0,7.0,98,0.00,,,0.00,VWS V12.07,2013-04-07 08:14:00,
2013-04-07 03:15:00,29.7,29.2,29.60,West,261,1.0,7.0,98,0.00,,,0.00,VWS V12.07,2013-04-07 08:15:00,
2013-04-07 03:19:00,29.5,29.0,29.60,WNW,288,4.0,7.0,98,0.00,,,0.00,VWS V12.07,2013-04-07 08:19:00,
2013-04-07 03:20:00,29.5,29.0,29.60,NNW,340,4.0,7.0,98,0.00,,,0.00,VWS V12.07,2013-04-07 08:20:00,
2013-04-07 03:25:00,29.4,28.7,29.60,NW,316,0.0,7.0,97,0.00,,,0.00,VWS V12.07,2013-04-07 08:25:00,
2013-04-07 03:30:00,29.4,28.7,29.60,North,5,1.0,7.0,97,0.00,,,0.00,VWS V12.07,2013-04-07 08:30:00,
2013-04-07 03:32:00,29.4,28.7,29.60,WNW,296,0.0,7.0,97,0.00,,,0.00,VWS V12.07,2013-04-07 08:32:00,
2013-04-07 03:35:00,29.4,28.7,29.60,NNW,335,0.0,7.0,97,0.00,,,0.00,VWS V12.07,2013-04-07 08:35:00,
2013-04-07 03:36:00,29.4,28.7,29.60,NNW,335,2.0,7.0,97,0.00,,,0.00,VWS V12.07,2013-04-07 08:36:00,
2013-04-07 03:37:00,29.4,28.7,29.60,NNW,335,0.0,7.0,97,0.00,,,0.00,VWS V12.07,2013-04-07 08:37:00,
2013-04-07 03:40:00,29.3,28.6,29.60,NNW,335,0.0,7.0,97,0.00,,,0.00,VWS V12.07,2013-04-07 08:40:00,
2013-04-07 03:42:00,29.3,28.6,29.60,NW,307,4.0,7.0,97,0.00,,,0.00,VWS V12.07,2013-04-07 08:42:00,
2013-04-07 03:43:00,29.3,28.6,29.60,NW,321,0.0,7.0,97,0.00,,,0.00,VWS V12.07,2013-04-07 08:43:00,
2013-04-07 03:46:00,29.3,28.6,29.61,WNW,296,0.0,7.0,97,0.00,,,0.00,VWS V12.07,2013-04-07 08:46:00,
2013-04-07 03:47:00,29.3,28.8,29.61,NW,316,0.0,7.0,98,0.00,,,0.00,VWS V12.07,2013-04-07 08:47:00,
2013-04-07 03:48:00,29.3,28.8,29.61,NW,316,0.0,7.0,98,0.00,,,0.00,VWS V12.07,2013-04-07 08:48:00,
2013-04-07 03:50:00,29.4,28.7,29.60,NNW,343,1.0,5.0,97,0.00,,,0.00,VWS V12.07,2013-04-07 08:50:00,
2013-04-07 03:51:00,29.3,28.8,29.61,NW,316,0.0,7.0,98,0.00,,,0.00,VWS V12.07,2013-04-07 08:51:00,
2013-04-07 03:52:00,29.3,28.8,29.61,West,269,1.0,7.0,98,0.00,,,0.00,VWS V12.07,2013-04-07 08:52:00,
2013-04-07 03:53:00,29.3,28.8,29.61,West,269,0.0,7.0,98,0.00,,,0.00,VWS V12.07,2013-04-07 08:53:00,
2013-04-07 03:57:00,29.3,28.8,29.61,ENE,75,0.0,7.0,98,0.00,,,0.00,VWS V12.07,2013-04-07 08:57:00,
2013-04-07 03:58:00,29.3,28.8,29.61,ENE,75,0.0,7.0,98,0.00,,,0.00,VWS V12.07,2013-04-07 08:58:00,
2013-04-07 03:59:00,29.3,28.8,29.62,NW,323,3.0,7.0,98,0.00,,,0.00,VWS V12.07,2013-04-07 08:59:00,
2013-04-07 04:00:00,29.3,28.6,29.61,WNW,296,0.0,4.0,97,0.00,,,0.00,VWS V12.07,2013-04-07 09:00:00,
2013-04-07 04:02:00,29.3,28.8,29.62,NW,323,1.0,7.0,98,0.00,,,0.00,VWS V12.07,2013-04-07 09:02:00,
2013-04-07 04:03:00,29.3,28.8,29.62,NW,309,2.0,7.0,98,0.00,,,0.00,VWS V12.07,2013-04-07 09:03:00,
2013-04-07 04:04:00,29.3,28.8,29.62,NW,309,0.0,7.0,98,0.00,,,0.00,VWS V12.07,2013-04-07 09:04:00,
2013-04-07 04:07:00,29.3,28.8,29.62,ENE,77,1.0,7.0,98,0.00,,,0.00,VWS V12.07,2013-04-07 09:07:00,
2013-04-07 04:08:00,29.3,28.8,29.62,NW,318,2.0,7.0,98,0.00,,,0.00,VWS V12.07,2013-04-07 09:08:00,
2013-04-07 04:10:00,29.1,28.6,29.62,NE,35,0.0,7.0,98,0.00,,,0.00,VWS V12.07,2013-04-07 09:10:00,
2013-04-07 04:11:00,29.1,28.6,29.62,NE,35,0.0,7.0,98,0.00,,,0.00,VWS V12.07,2013-04-07 09:11:00,
2013-04-07 04:12:00,29.1,28.6,29.62,WNW,285,0.0,7.0,98,0.00,,,0.00,VWS V12.07,2013-04-07 09:12:00,
2013-04-07 04:13:00,29.1,28.6,29.62,East,81,1.0,7.0,98,0.00,,,0.00,VWS V12.07,2013-04-07 09:13:00,
2013-04-07 04:15:00,29.1,28.6,29.63,North,9,0.0,7.0,98,0.00,,,0.00,VWS V12.07,2013-04-07 09:15:00,
2013-04-07 04:16:00,29.1,28.6,29.63,NW,326,0.0,7.0,98,0.00,,,0.00,VWS V12.07,2013-04-07 09:16:00,
2013-04-07 04:17:00,29.1,28.6,29.63,WNW,293,0.0,7.0,98,0.00,,,0.00,VWS V12.07,2013-04-07 09:17:00,
2013-04-07 04:19:00,29.3,28.8,29.63,WNW,293,0.0,7.0,98,0.00,,,0.00,VWS V12.07,2013-04-07 09:19:00,
2013-04-07 04:20:00,29.3,28.8,29.63,WNW,293,1.0,7.0,98,0.00,,,0.00,VWS V12.07,2013-04-07 09:20:00,
2013-04-07 04:21:00,29.3,28.8,29.63,WNW,292,0.0,7.0,98,0.00,,,0.00,VWS V12.07,2013-04-07 09:21:00,
2013-04-07 04:23:00,29.3,28.8,29.63,NE,34,0.0,7.0,98,0.00,,,0.00,VWS V12.07,2013-04-07 09:23:00,
2013-04-07 04:24:00,29.3,28.8,29.63,NE,34,0.0,7.0,98,0.00,,,0.00,VWS V12.07,2013-04-07 09:24:00,
2013-04-07 04:26:00,29.3,28.8,29.63,WNW,287,1.0,7.0,98,0.00,,,0.00,VWS V12.07,2013-04-07 09:26:00,
2013-04-07 04:27:00,29.3,28.8,29.63,NNW,330,2.0,7.0,98,0.00,,,0.00,VWS V12.07,2013-04-07 09:27:00,
2013-04-07 04:29:00,29.3,28.8,29.63,NNW,330,0.0,7.0,98,0.00,,,0.00,VWS V12.07,2013-04-07 09:29:00,
2013-04-07 04:30:00,29.3,28.8,29.63,NNW,330,0.0,7.0,98,0.00,,,0.00,VWS V12.07,2013-04-07 09:30:00,
2013-04-07 04:32:00,29.3,28.8,29.63,NNW,332,2.0,7.0,98,0.00,,,0.00,VWS V12.07,2013-04-07 09:32:00,
2013-04-07 04:34:00,29.1,28.6,29.63,NNW,333,0.0,7.0,98,0.00,,,0.00,VWS V12.07,2013-04-07 09:34:00,
2013-04-07 04:35:00,29.1,28.6,29.63,NNW,333,0.0,7.0,98,0.00,,,0.00,VWS V12.07,2013-04-07 09:35:00,
2013-04-07 04:37:00,29.1,28.6,29.63,NNW,332,2.0,7.0,98,0.00,,,0.00,VWS V12.07,2013-04-07 09:37:00,
2013-04-07 04:39:00,29.1,28.6,29.63,North,3,0.0,7.0,98,0.00,,,0.00,VWS V12.07,2013-04-07 09:39:00,
2013-04-07 04:40:00,29.1,28.6,29.63,North,3,0.0,7.0,98,0.00,,,0.00,VWS V12.07,2013-04-07 09:40:00,
2013-04-07 04:42:00,29.1,28.6,29.63,NW,325,0.0,7.0,98,0.00,,,0.00,VWS V12.07,2013-04-07 09:42:00,
2013-04-07 04:45:00,29.1,28.6,29.65,NW,320,0.0,7.0,98,0.00,,,0.00,VWS V12.07,2013-04-07 09:45:00,
2013-04-07 04:46:00,29.1,28.6,29.65,NW,320,0.0,7.0,98,0.00,,,0.00,VWS V12.07,2013-04-07 09:46:00,
2013-04-07 04:47:00,29.1,28.6,29.65,NW,320,1.0,7.0,98,0.00,,,0.00,VWS V12.07,2013-04-07 09:47:00,
2013-04-07 04:50:00,29.1,28.9,29.65,NNW,337,0.0,7.0,99,0.00,,,0.00,VWS V12.07,2013-04-07 09:50:00,
2013-04-07 04:52:00,29.1,28.9,29.65,NNW,337,0.0,7.0,99,0.00,,,0.00,VWS V12.07,2013-04-07 09:52:00,
2013-04-07 04:56:00,29.1,28.9,29.65,WNW,289,1.0,7.0,99,0.00,,,0.00,VWS V12.07,2013-04-07 09:56:00,
2013-04-07 04:57:00,29.1,28.9,29.65,WNW,288,0.0,7.0,99,0.00,,,0.00,VWS V12.07,2013-04-07 09:57:00,
2013-04-07 05:00:00,29.1,28.6,29.65,NW,320,0.0,3.0,98,0.00,,,0.00,VWS V12.07,2013-04-07 10:00:00,
2013-04-07 05:01:00,29.1,28.9,29.65,WNW,288,0.0,7.0,99,0.00,,,0.00,VWS V12.07,2013-04-07 10:01:00,
2013-04-07 05:02:00,29.1,28.9,29.65,WNW,289,1.0,7.0,99,0.00,,,0.00,VWS V12.07,2013-04-07 10:02:00,
2013-04-07 05:03:00,29.1,28.9,29.65,WNW,289,0.0,7.0,99,0.00,,,0.00,VWS V12.07,2013-04-07 10:03:00,
2013-04-07 05:07:00,29.1,28.9,29.65,ENE,72,1.0,7.0,99,0.00,,,0.00,VWS V12.07,2013-04-07 10:07:00,
2013-04-07 05:08:00,29.1,28.9,29.65,ENE,72,1.0,7.0,99,0.00,,,0.00,VWS V12.07,2013-04-07 10:08:00,
2013-04-07 05:10:00,29.1,28.9,29.65,WNW,288,0.0,3.0,99,0.00,,,0.00,VWS V12.07,2013-04-07 10:10:00,
2013-04-07 05:12:00,29.1,28.9,29.65,NE,35,0.0,7.0,99,0.00,,,0.00,VWS V12.07,2013-04-07 10:12:00,
2013-04-07 05:13:00,29.1,28.9,29.65,NE,35,0.0,7.0,99,0.00,,,0.00,VWS V12.07,2013-04-07 10:13:00,
2013-04-07 05:15:00,29.1,28.9,29.66,North,352,0.0,7.0,99,0.00,,,0.00,VWS V12.07,2013-04-07 10:15:00,
2013-04-07 05:17:00,29.1,28.9,29.66,North,352,0.0,7.0,99,0.00,,,0.00,VWS V12.07,2013-04-07 10:17:00,
2013-04-07 05:18:00,29.1,28.9,29.66,North,352,0.0,7.0,99,0.00,,,0.00,VWS V12.07,2013-04-07 10:18:00,
2013-04-07 05:20:00,29.1,28.9,29.66,North,352,0.0,7.0,99,0.00,,,0.00,VWS V12.07,2013-04-07 10:20:00,
2013-04-07 05:22:00,29.1,28.6,29.66,North,352,0.0,7.0,98,0.00,,,0.00,VWS V12.07,2013-04-07 10:22:00,
2013-04-07 05:23:00,29.1,28.9,29.66,NNE,32,2.0,7.0,99,0.00,,,0.00,VWS V12.07,2013-04-07 10:23:00,
2013-04-07 05:24:00,29.1,28.6,29.66,NNE,32,1.0,7.0,98,0.00,,,0.00,VWS V12.07,2013-04-07 10:24:00,
2013-04-07 05:25:00,29.1,28.6,29.66,NNE,32,0.0,7.0,98,0.00,,,0.00,VWS V12.07,2013-04-07 10:25:00,
2013-04-07 05:28:00,29.1,28.6,29.66,NNE,32,1.0,7.0,98,0.00,,,0.00,VWS V12.07,2013-04-07 10:28:00,
2013-04-07 05:29:00,29.1,28.6,29.67,North,3,1.0,7.0,98,0.00,,,0.00,VWS V12.07,2013-04-07 10:29:00,
2013-04-07 05:30:00,29.1,28.9,29.66,North,352,0.0,3.0,99,0.00,,,0.00,VWS V12.07,2013-04-07 10:30:00,
2013-04-07 05:31:00,29.1,28.6,29.67,NNE,12,0.0,7.0,98,0.00,,,0.00,VWS V12.07,2013-04-07 10:31:00,
2013-04-07 05:33:00,29.1,28.6,29.67,NNE,12,0.0,7.0,98,0.00,,,0.00,VWS V12.07,2013-04-07 10:33:00,
2013-04-07 05:34:00,29.1,28.6,29.67,NNE,12,1.0,7.0,98,0.00,,,0.00,VWS V12.07,2013-04-07 10:34:00,
2013-04-07 05:35:00,29.1,28.6,29.67,NNE,12,0.0,7.0,98,0.00,,,0.00,VWS V12.07,2013-04-07 10:35:00,
2013-04-07 05:36:00,29.1,28.6,29.67,NNE,12,0.0,7.0,98,0.00,,,0.00,VWS V12.07,2013-04-07 10:36:00,
2013-04-07 05:38:00,29.1,28.6,29.67,NNE,12,0.0,7.0,98,0.00,,,0.00,VWS V12.07,2013-04-07 10:38:00,
2013-04-07 05:40:00,29.1,28.6,29.67,NNE,12,0.0,7.0,98,0.00,,,0.00,VWS V12.07,2013-04-07 10:40:00,
2013-04-07 05:41:00,29.1,28.6,29.67,North,7,0.0,7.0,98,0.00,,,0.00,VWS V12.07,2013-04-07 10:41:00,
2013-04-07 05:43:00,29.1,28.6,29.67,North,6,0.0,7.0,98,0.00,,,0.00,VWS V12.07,2013-04-07 10:43:00,
2013-04-07 05:45:00,29.1,28.6,29.67,North,6,0.0,7.0,98,0.00,,,0.00,VWS V12.07,2013-04-07 10:45:00,
2013-04-07 05:47:00,29.1,28.6,29.67,North,6,0.0,7.0,98,0.00,,,0.00,VWS V12.07,2013-04-07 10:47:00,
2013-04-07 05:50:00,29.1,28.6,29.67,North,6,1.0,7.0,98,0.00,,,0.00,VWS V12.07,2013-04-07 10:50:00,
2013-04-07 05:52:00,29.1,28.6,29.67,North,6,0.0,7.0,98,0.00,,,0.00,VWS V12.07,2013-04-07 10:52:00,
2013-04-07 05:54:00,29.1,28.6,29.67,North,6,0.0,7.0,98,0.00,,,0.00,VWS V12.07,2013-04-07 10:54:00,
2013-04-07 05:55:00,29.1,28.6,29.67,North,6,0.0,7.0,98,0.00,,,0.00,VWS V12.07,2013-04-07 10:55:00,
2013-04-07 05:57:00,29.1,28.6,29.67,North,6,0.0,7.0,98,0.00,,,0.00,VWS V12.07,2013-04-07 10:57:00,
2013-04-07 05:59:00,29.1,28.6,29.67,North,6,0.0,7.0,98,0.00,,,0.00,VWS V12.07,2013-04-07 10:59:00,
2013-04-07 06:00:00,29.1,28.6,29.67,North,6,1.0,7.0,98,0.00,,,0.00,VWS V12.07,2013-04-07 11:00:00,
2013-04-07 06:03:00,29.3,28.8,29.67,North,6,0.0,7.0,98,0.00,,,0.00,VWS V12.07,2013-04-07 11:03:00,
2013-04-07 06:04:00,29.3,28.8,29.67,NE,40,1.0,7.0,98,0.00,,,0.00,VWS V12.07,2013-04-07 11:04:00,
2013-04-07 06:06:00,29.3,28.8,29.67,NE,37,2.0,7.0,98,0.00,,,0.00,VWS V12.07,2013-04-07 11:06:00,
2013-04-07 06:08:00,29.3,28.8,29.67,WNW,286,2.0,7.0,98,0.00,,,0.00,VWS V12.07,2013-04-07 11:08:00,
2013-04-07 06:09:00,29.3,28.8,29.67,North,350,0.0,7.0,98,0.00,,,0.00,VWS V12.07,2013-04-07 11:09:00,
2013-04-07 06:10:00,29.1,28.6,29.67,North,6,0.0,2.0,98,0.00,,,0.00,VWS V12.07,2013-04-07 11:10:00,
2013-04-07 06:11:00,29.3,28.8,29.67,North,349,0.0,7.0,98,0.00,,,0.00,VWS V12.07,2013-04-07 11:11:00,
2013-04-07 06:13:00,29.3,28.8,29.67,North,349,0.0,7.0,98,0.00,,,0.00,VWS V12.07,2013-04-07 11:13:00,
2013-04-07 06:15:00,29.3,28.8,29.68,North,349,0.0,7.0,98,0.00,,,0.00,VWS V12.07,2013-04-07 11:15:00,
2013-04-07 06:17:00,29.3,28.8,29.68,NNW,342,0.0,7.0,98,0.00,,,0.00,VWS V12.07,2013-04-07 11:17:00,
2013-04-07 06:18:00,29.3,28.8,29.68,NNW,342,0.0,7.0,98,0.00,,,0.00,VWS V12.07,2013-04-07 11:18:00,
2013-04-07 06:19:00,29.3,28.8,29.68,NNW,342,2.0,7.0,98,0.00,,,0.00,VWS V12.07,2013-04-07 11:19:00,
2013-04-07 06:20:00,29.3,28.8,29.68,WNW,300,3.0,7.0,98,0.00,,,0.00,VWS V12.07,2013-04-07 11:20:00,
2013-04-07 06:22:00,29.3,28.8,29.68,WNW,300,1.0,7.0,98,0.00,,,0.00,VWS V12.07,2013-04-07 11:22:00,
2013-04-07 06:23:00,29.3,28.8,29.68,WNW,300,1.0,7.0,98,0.00,,,0.00,VWS V12.07,2013-04-07 11:23:00,
2013-04-07 06:25:00,29.3,28.8,29.68,WNW,300,0.0,7.0,98,0.00,,,0.00,VWS V12.07,2013-04-07 11:25:00,
2013-04-07 06:27:00,29.3,28.8,29.68,WNW,300,0.0,7.0,98,0.00,,,0.00,VWS V12.07,2013-04-07 11:27:00,
2013-04-07 06:28:00,29.3,28.8,29.68,WNW,300,0.0,7.0,98,0.00,,,0.00,VWS V12.07,2013-04-07 11:28:00,
2013-04-07 06:30:00,29.3,28.8,29.70,WNW,300,0.0,7.0,98,0.00,,,0.00,VWS V12.07,2013-04-07 11:30:00,
2013-04-07 06:32:00,29.3,28.8,29.70,WNW,300,0.0,7.0,98,0.00,,,0.00,VWS V12.07,2013-04-07 11:32:00,
2013-04-07 06:33:00,29.3,28.8,29.70,WNW,300,0.0,7.0,98,0.00,,,0.00,VWS V12.07,2013-04-07 11:33:00,
2013-04-07 06:35:00,29.4,28.9,29.70,WNW,300,0.0,7.0,98,0.00,,,0.00,VWS V12.07,2013-04-07 11:35:00,
2013-04-07 06:36:00,29.4,28.9,29.70,WNW,300,0.0,7.0,98,0.00,,,0.00,VWS V12.07,2013-04-07 11:36:00,
2013-04-07 06:37:00,29.4,28.9,29.70,WNW,301,0.0,7.0,98,0.00,,,0.00,VWS V12.07,2013-04-07 11:37:00,
2013-04-07 06:39:00,29.4,28.9,29.70,NW,307,0.0,7.0,98,0.00,,,0.00,VWS V12.07,2013-04-07 11:39:00,
2013-04-07 06:40:00,29.3,28.8,29.68,WNW,300,0.0,3.0,98,0.00,,,0.00,VWS V12.07,2013-04-07 11:40:00,
2013-04-07 06:41:00,29.4,28.9,29.70,NW,307,0.0,7.0,98,0.00,,,0.00,VWS V12.07,2013-04-07 11:41:00,
2013-04-07 06:43:00,29.4,28.9,29.70,North,5,0.0,7.0,98,0.00,,,0.00,VWS V12.07,2013-04-07 11:43:00,
2013-04-07 06:46:00,29.4,28.9,29.71,North,5,0.0,7.0,98,0.00,,,0.00,VWS V12.07,2013-04-07 11:46:00,
2013-04-07 06:47:00,29.4,28.9,29.71,North,5,0.0,7.0,98,0.00,,,0.00,VWS V12.07,2013-04-07 11:47:00,
2013-04-07 06:48:00,29.4,28.9,29.71,North,5,0.0,7.0,98,0.00,,,0.00,VWS V12.07,2013-04-07 11:48:00,
2013-04-07 06:49:00,29.4,28.9,29.71,North,5,0.0,7.0,98,0.00,,,0.00,VWS V12.07,2013-04-07 11:49:00,
2013-04-07 06:50:00,29.4,28.9,29.70,WNW,300,0.0,1.0,98,0.00,,,0.00,VWS V12.07,2013-04-07 11:50:00,
2013-04-07 06:52:00,29.4,28.9,29.71,North,5,2.0,7.0,98,0.00,,,0.00,VWS V12.07,2013-04-07 11:52:00,
2013-04-07 06:53:00,29.4,28.9,29.71,WSW,238,2.0,7.0,98,0.00,,,0.00,VWS V12.07,2013-04-07 11:53:00,
2013-04-07 06:54:00,29.4,28.9,29.71,WSW,250,0.0,7.0,98,0.00,,,0.00,VWS V12.07,2013-04-07 11:54:00,
2013-04-07 06:58:00,29.3,28.8,29.71,NW,305,0.0,7.0,98,0.00,,,0.00,VWS V12.07,2013-04-07 11:58:00,
2013-04-07 06:59:00,29.3,28.8,29.72,NW,305,0.0,7.0,98,0.00,,,0.00,VWS V12.07,2013-04-07 11:59:00,
2013-04-07 07:00:00,29.4,28.9,29.71,North,5,2.0,5.0,98,0.00,,,0.00,VWS V12.07,2013-04-07 12:00:00,
2013-04-07 07:04:00,29.4,28.9,29.72,NW,305,0.0,7.0,98,0.00,,,0.00,VWS V12.07,2013-04-07 12:04:00,
2013-04-07 07:05:00,29.4,28.9,29.72,NW,305,0.0,7.0,98,0.00,,,0.00,VWS V12.07,2013-04-07 12:05:00,
2013-04-07 07:09:00,29.4,28.9,29.72,NE,53,0.0,7.0,98,0.00,,,0.00,VWS V12.07,2013-04-07 12:09:00,
2013-04-07 07:10:00,29.4,28.9,29.72,NE,53,0.0,7.0,98,0.00,,,0.00,VWS V12.07,2013-04-07 12:10:00,
2013-04-07 07:14:00,29.3,28.6,29.73,North,8,0.0,7.0,97,0.00,,,0.00,VWS V12.07,2013-04-07 12:14:00,
2013-04-07 07:15:00,29.3,28.6,29.73,North,8,0.0,7.0,97,0.00,,,0.00,VWS V12.07,2013-04-07 12:15:00,
2013-04-07 07:20:00,29.4,28.7,29.73,North,8,1.0,7.0,97,0.00,,,0.00,VWS V12.07,2013-04-07 12:20:00,
2013-04-07 07:22:00,29.4,28.9,29.73,North,8,0.0,7.0,98,0.00,,,0.00,VWS V12.07,2013-04-07 12:22:00,
2013-04-07 07:25:00,29.4,28.9,29.73,North,8,0.0,7.0,98,0.00,,,0.00,VWS V12.07,2013-04-07 12:25:00,
2013-04-07 07:27:00,29.4,28.9,29.73,North,8,0.0,7.0,98,0.00,,,0.00,VWS V12.07,2013-04-07 12:27:00,
2013-04-07 07:30:00,29.3,28.6,29.73,North,8,0.0,4.0,97,0.00,,,0.00,VWS V12.07,2013-04-07 12:30:00,
2013-04-07 07:31:00,29.5,29.0,29.74,NW,323,2.0,7.0,98,0.00,,,0.00,VWS V12.07,2013-04-07 12:31:00,
2013-04-07 07:32:00,29.5,28.8,29.74,NNW,336,0.0,7.0,97,0.00,,,0.00,VWS V12.07,2013-04-07 12:32:00,
2013-04-07 07:36:00,29.5,28.8,29.74,NNW,336,0.0,7.0,97,0.00,,,0.00,VWS V12.07,2013-04-07 12:36:00,
2013-04-07 07:38:00,29.5,28.8,29.74,NE,35,0.0,7.0,97,0.00,,,0.00,VWS V12.07,2013-04-07 12:38:00,
2013-04-07 07:41:00,29.4,28.7,29.74,NW,311,0.0,1.0,97,0.00,,,0.00,VWS V12.07,2013-04-07 12:41:00,
2013-04-07 07:43:00,29.4,28.7,29.74,NW,311,0.0,2.0,97,0.00,,,0.00,VWS V12.07,2013-04-07 12:43:00,
2013-04-07 07:48:00,29.5,28.8,29.75,NW,311,0.0,1.0,97,0.00,,OVC008,0.00,VWS V12.07,2013-04-07 12:48:00,
2013-04-07 07:50:00,29.5,28.8,29.75,NW,311,0.0,1.0,97,0.00,,OVC008,0.00,VWS V12.07,2013-04-07 12:50:00,
2013-04-07 07:53:00,29.5,28.5,29.75,NNW,345,0.0,4.0,96,0.00,,OVC008,0.00,VWS V12.07,2013-04-07 12:53:00,
2013-04-07 07:54:00,29.5,28.5,29.75,West,276,0.0,4.0,96,0.00,,OVC008,0.00,VWS V12.07,2013-04-07 12:54:00,
2013-04-07 07:55:00,29.5,28.5,29.75,West,276,0.0,4.0,96,0.00,,OVC008,0.00,VWS V12.07,2013-04-07 12:55:00,
2013-04-07 07:58:00,29.4,28.4,29.75,West,276,1.0,4.0,96,0.00,,OVC008,0.00,VWS V12.07,2013-04-07 12:58:00,
2013-04-07 07:59:00,29.4,28.4,29.77,North,0,0.0,4.0,96,0.00,,OVC008,0.00,VWS V12.07,2013-04-07 12:59:00,
2013-04-07 08:00:00,29.4,28.4,29.77,North,0,0.0,4.0,96,0.00,,OVC008,0.00,VWS V12.07,2013-04-07 13:00:00,
2013-04-07 08:04:00,29.4,28.4,29.77,WSW,258,2.0,4.0,96,0.00,,OVC008,0.00,VWS V12.07,2013-04-07 13:04:00,
2013-04-07 08:06:00,29.4,28.4,29.77,NNE,26,1.0,4.0,96,0.00,,OVC008,0.00,VWS V12.07,2013-04-07 13:06:00,
2013-04-07 08:07:00,29.4,28.4,29.77,NNE,26,0.0,4.0,96,0.00,,OVC008,0.00,VWS V12.07,2013-04-07 13:07:00,
2013-04-07 08:10:00,29.5,28.5,29.77,NNE,26,1.0,2.0,96,0.00,,OVC008,0.00,VWS V12.07,2013-04-07 13:10:00,
2013-04-07 08:12:00,29.5,28.5,29.77,NNE,26,0.0,2.0,96,0.00,,OVC008,0.00,VWS V12.07,2013-04-07 13:12:00,
2013-04-07 08:13:00,29.5,28.5,29.77,NNE,26,0.0,2.0,96,0.00,,OVC008,0.00,VWS V12.07,2013-04-07 13:13:00,
2013-04-07 08:15:00,29.5,28.5,29.77,NNE,29,0.0,2.0,96,0.00,,OVC008,0.00,VWS V12.07,2013-04-07 13:15:00,
2013-04-07 08:18:00,29.5,28.5,29.77,North,0,0.0,2.0,96,0.00,,OVC008,0.00,VWS V12.07,2013-04-07 13:18:00,
2013-04-07 08:20:00,29.7,28.7,29.77,North,0,0.0,2.0,96,0.00,,OVC008,0.00,VWS V12.07,2013-04-07 13:20:00,
2013-04-07 08:23:00,29.7,28.7,29.77,North,0,1.0,2.0,96,0.00,,OVC008,0.00,VWS V12.07,2013-04-07 13:23:00,
2013-04-07 08:25:00,29.8,28.8,29.77,WNW,288,1.0,2.0,96,0.00,,OVC008,0.00,VWS V12.07,2013-04-07 13:25:00,
2013-04-07 08:28:00,29.8,28.8,29.77,WNW,293,1.0,2.0,96,0.00,,OVC008,0.00,VWS V12.07,2013-04-07 13:28:00,
2013-04-07 08:30:00,29.8,28.8,29.77,WNW,293,0.0,2.0,96,0.00,,OVC008,0.00,VWS V12.07,2013-04-07 13:30:00,
2013-04-07 08:31:00,29.8,28.8,29.77,WNW,293,0.0,2.0,96,0.00,,OVC008,0.00,VWS V12.07,2013-04-07 13:31:00,
2013-04-07 08:33:00,30.0,29.0,29.77,WNW,293,0.0,2.0,96,0.00,,OVC008,0.00,VWS V12.07,2013-04-07 13:33:00,
2013-04-07 08:35:00,30.0,29.0,29.77,NNW,348,1.0,3.0,96,0.00,,,0.00,VWS V12.07,2013-04-07 13:35:00,
2013-04-07 08:37:00,30.0,29.0,29.77,NE,38,0.0,3.0,96,0.00,,,0.00,VWS V12.07,2013-04-07 13:37:00,
2013-04-07 08:40:00,30.1,29.1,29.77,NE,38,0.0,3.0,96,0.00,,,0.00,VWS V12.07,2013-04-07 13:40:00,
2013-04-07 08:41:00,30.1,29.1,29.77,NE,38,0.0,3.0,96,0.00,,,0.00,VWS V12.07,2013-04-07 13:41:00,
2013-04-07 08:42:00,30.1,29.1,29.77,NE,44,1.0,3.0,96,0.00,,,0.00,VWS V12.07,2013-04-07 13:42:00,
2013-04-07 08:45:00,30.1,29.1,29.77,ENE,72,1.0,3.0,96,0.00,,,0.00,VWS V12.07,2013-04-07 13:45:00,
2013-04-07 08:46:00,30.1,29.1,29.77,ENE,72,1.0,3.0,96,0.00,,,0.00,VWS V12.07,2013-04-07 13:46:00,
2013-04-07 08:47:00,30.1,28.8,29.77,ENE,72,1.0,3.0,95,0.00,,,0.00,VWS V12.07,2013-04-07 13:47:00,
2013-04-07 08:51:00,30.1,28.8,29.77,ENE,72,0.0,2.0,95,0.00,,,0.00,VWS V12.07,2013-04-07 13:51:00,
2013-04-07 08:52:00,30.1,29.1,29.77,ENE,72,0.0,2.0,96,0.00,,,0.00,VWS V12.07,2013-04-07 13:52:00,
2013-04-07 08:56:00,30.3,29.3,29.77,SSE,157,0.0,2.0,96,0.00,,,0.00,VWS V12.07,2013-04-07 13:56:00,
2013-04-07 08:57:00,30.3,29.0,29.77,SSE,157,0.0,2.0,95,0.00,,,0.00,VWS V12.07,2013-04-07 13:57:00,
2013-04-07 08:58:00,30.3,29.0,29.77,SSE,157,0.0,2.0,95,0.00,,,0.00,VWS V12.07,2013-04-07 13:58:00,
2013-04-07 09:02:00,30.3,29.0,29.78,East,97,1.0,2.0,95,0.00,,,0.00,VWS V12.07,2013-04-07 14:02:00,
2013-04-07 09:03:00,30.3,29.0,29.78,East,97,1.0,2.0,95,0.00,,,0.00,VWS V12.07,2013-04-07 14:03:00,
2013-04-07 09:05:00,30.3,29.0,29.78,North,0,0.0,2.0,95,0.00,,,0.00,VWS V12.07,2013-04-07 14:05:00,
2013-04-07 09:07:00,30.3,29.0,29.78,WNW,290,0.0,2.0,95,0.00,,,0.00,VWS V12.07,2013-04-07 14:07:00,
2013-04-07 09:08:00,30.3,29.0,29.78,WNW,290,0.0,2.0,95,0.00,,,0.00,VWS V12.07,2013-04-07 14:08:00,
2013-04-07 09:11:00,30.4,29.1,29.78,WNW,290,0.0,2.0,95,0.00,,,0.00,VWS V12.07,2013-04-07 14:11:00,
2013-04-07 09:13:00,30.4,29.1,29.78,NNW,342,1.0,2.0,95,0.00,,,0.00,VWS V12.07,2013-04-07 14:13:00,
2013-04-07 09:17:00,30.4,29.1,29.78,North,2,0.0,2.0,95,0.00,,,0.00,VWS V12.07,2013-04-07 14:17:00,
2013-04-07 09:18:00,30.4,29.1,29.78,North,2,0.0,2.0,95,0.00,,,0.00,VWS V12.07,2013-04-07 14:18:00,
2013-04-07 09:22:00,30.4,28.9,29.78,NW,307,1.0,3.0,94,0.00,,,0.00,VWS V12.07,2013-04-07 14:22:00,
2013-04-07 09:23:00,30.4,28.9,29.78,NW,307,0.0,3.0,94,0.00,,,0.00,VWS V12.07,2013-04-07 14:23:00,
2013-04-07 09:24:00,30.4,28.9,29.78,NW,307,0.0,3.0,94,0.00,,,0.00,VWS V12.07,2013-04-07 14:24:00,
2013-04-07 09:27:00,30.4,28.9,29.78,North,1,2.0,3.0,94,0.00,,,0.00,VWS V12.07,2013-04-07 14:27:00,
2013-04-07 09:29:00,30.4,28.9,29.78,North,1,0.0,3.0,94,0.00,,,0.00,VWS V12.07,2013-04-07 14:29:00,
2013-04-07 09:33:00,30.6,29.1,29.80,North,6,0.0,3.0,94,0.00,,,0.00,VWS V12.07,2013-04-07 14:33:00,
2013-04-07 09:34:00,30.6,29.1,29.80,North,6,0.0,3.0,94,0.00,,OVC012,0.00,VWS V12.07,2013-04-07 14:34:00,
2013-04-07 09:38:00,30.7,29.2,29.80,NE,51,1.0,3.0,94,0.00,,OVC012,0.00,VWS V12.07,2013-04-07 14:38:00,
2013-04-07 09:39:00,30.7,28.9,29.80,NE,51,0.0,2.0,93,0.00,,OVC012,0.00,VWS V12.07,2013-04-07 14:39:00,
2013-04-07 09:40:00,30.7,28.9,29.80,NE,51,1.0,2.0,93,0.00,,OVC012,0.00,VWS V12.07,2013-04-07 14:40:00,
2013-04-07 09:44:00,30.7,28.7,29.81,NE,51,0.0,2.0,92,0.00,,OVC012,0.00,VWS V12.07,2013-04-07 14:44:00,
2013-04-07 09:45:00,30.7,28.7,29.81,NE,51,0.0,2.0,92,0.00,,OVC012,0.00,VWS V12.07,2013-04-07 14:45:00,
2013-04-07 09:49:00,30.9,28.9,29.81,NW,318,1.0,2.0,92,0.00,,OVC012,0.00,VWS V12.07,2013-04-07 14:49:00,
2013-04-07 09:50:00,30.9,28.9,29.81,NW,318,0.0,2.0,92,0.00,,OVC012,0.00,VWS V12.07,2013-04-07 14:50:00,
2013-04-07 09:55:00,30.9,28.6,29.81,West,259,0.0,3.0,91,0.00,,OVC012,0.00,VWS V12.07,2013-04-07 14:55:00,
2013-04-07 09:56:00,30.9,28.6,29.81,West,262,0.0,3.0,91,0.00,,OVC012,0.00,VWS V12.07,2013-04-07 14:56:00,
2013-04-07 09:58:00,31.0,28.7,29.81,West,262,0.0,1.0,91,0.00,,OVC012,0.00,VWS V12.07,2013-04-07 14:58:00,
2013-04-07 10:00:00,31.2,29.1,29.82,West,262,0.0,1.0,92,0.00,,OVC012,0.00,VWS V12.07,2013-04-07 15:00:00,
2013-04-07 10:01:00,31.3,29.2,29.82,West,262,0.0,1.0,92,0.00,,OVC012,0.00,VWS V12.07,2013-04-07 15:01:00,
2013-04-07 10:03:00,31.5,29.5,29.82,NNW,332,0.0,2.0,92,0.00,,OVC012,0.00,VWS V12.07,2013-04-07 15:03:00,
2013-04-07 10:06:00,31.5,29.5,29.82,NNW,332,0.0,2.0,92,0.00,,OVC012,0.00,VWS V12.07,2013-04-07 15:06:00,
2013-04-07 10:07:00,31.6,29.3,29.82,NNW,332,0.0,2.0,91,0.00,,OVC012,0.00,VWS V12.07,2013-04-07 15:07:00,
2013-04-07 10:09:00,31.6,29.3,29.82,NNW,332,0.0,2.0,91,0.00,,OVC012,0.00,VWS V12.07,2013-04-07 15:09:00,
2013-04-07 10:11:00,31.6,29.0,29.82,NE,35,2.0,4.0,90,0.00,,OVC012,0.00,VWS V12.07,2013-04-07 15:11:00,
2013-04-07 10:12:00,31.6,29.0,29.82,NE,35,1.0,4.0,90,0.00,,OVC012,0.00,VWS V12.07,2013-04-07 15:12:00,
2013-04-07 10:15:00,31.8,29.2,29.82,NE,35,0.0,4.0,90,0.00,,OVC012,0.00,VWS V12.07,2013-04-07 15:15:00,
2013-04-07 10:17:00,31.8,29.2,29.82,NE,35,0.0,4.0,90,0.00,,OVC012,0.00,VWS V12.07,2013-04-07 15:17:00,
2013-04-07 10:20:00,31.9,29.3,29.82,WNW,294,1.0,3.0,90,0.00,,OVC012,0.00,VWS V12.07,2013-04-07 15:20:00,
2013-04-07 10:22:00,32.1,29.5,29.82,WNW,294,0.0,3.0,90,0.00,,OVC012,0.00,VWS V12.07,2013-04-07 15:22:00,
2013-04-07 10:24:00,32.2,29.6,29.82,North,11,0.0,3.0,90,0.00,,OVC012,0.00,VWS V12.07,2013-04-07 15:24:00,
2013-04-07 10:25:00,32.2,29.6,29.82,North,11,0.0,3.0,90,0.00,,OVC012,0.00,VWS V12.07,2013-04-07 15:25:00,
2013-04-07 10:27:00,32.4,29.8,29.82,North,11,0.0,3.0,90,0.00,,OVC012,0.00,VWS V12.07,2013-04-07 15:27:00,
2013-04-07 10:29:00,32.4,29.8,29.84,North,11,0.0,2.0,90,0.00,,OVC012,0.00,VWS V12.07,2013-04-07 15:29:00,
2013-04-07 10:31:00,32.5,29.9,29.84,NNE,31,0.0,3.0,90,0.00,,OVC012,0.00,VWS V12.07,2013-04-07 15:31:00,
2013-04-07 10:32:00,32.5,29.9,29.84,NNE,31,0.0,3.0,90,0.00,,OVC012,0.00,VWS V12.07,2013-04-07 15:32:00,
2013-04-07 10:36:00,32.7,30.1,29.84,NNE,31,1.0,3.0,90,0.00,,,0.00,VWS V12.07,2013-04-07 15:36:00,
2013-04-07 10:38:00,32.7,29.8,29.84,South,190,1.0,3.0,89,0.00,,,0.00,VWS V12.07,2013-04-07 15:38:00,
2013-04-07 10:41:00,32.7,29.8,29.84,South,190,1.0,3.0,89,0.00,,,0.00,VWS V12.07,2013-04-07 15:41:00,
2013-04-07 10:43:00,32.7,29.5,29.84,South,185,1.0,3.0,88,0.00,,,0.00,VWS V12.07,2013-04-07 15:43:00,
2013-04-07 10:44:00,32.7,29.3,29.85,SSW,204,0.0,3.0,87,0.00,,,0.00,VWS V12.07,2013-04-07 15:44:00,
2013-04-07 10:46:00,32.7,29.5,29.85,WNW,300,2.0,3.0,88,0.00,,,0.00,VWS V12.07,2013-04-07 15:46:00,
2013-04-07 10:48:00,32.7,29.3,29.85,SSW,204,0.0,3.0,87,0.00,,OVC010,0.00,VWS V12.07,2013-04-07 15:48:00,
2013-04-07 10:50:00,32.7,29.3,29.85,West,259,0.0,3.0,87,0.00,,OVC010,0.00,VWS V12.07,2013-04-07 15:50:00,
2013-04-07 10:52:00,32.8,29.6,29.85,West,259,1.0,3.0,88,0.00,,OVC010,0.00,VWS V12.07,2013-04-07 15:52:00,
2013-04-07 10:53:00,32.8,29.6,29.85,West,259,0.0,3.0,88,0.00,,OVC010,0.00,VWS V12.07,2013-04-07 15:53:00,
2013-04-07 10:55:00,32.8,29.4,29.85,NNW,335,0.0,3.0,87,0.00,,OVC010,0.00,VWS V12.07,2013-04-07 15:55:00,
2013-04-07 10:58:00,32.8,29.4,29.85,NNW,335,0.0,3.0,87,0.00,,OVC010,0.00,VWS V12.07,2013-04-07 15:58:00,
2013-04-07 11:02:00,32.9,29.7,29.85,West,264,0.0,3.0,88,0.00,,OVC010,0.00,VWS V12.07,2013-04-07 16:02:00,
2013-04-07 11:03:00,32.9,29.7,29.85,West,264,0.0,3.0,88,0.00,,OVC010,0.00,VWS V12.07,2013-04-07 16:03:00,
2013-04-07 11:07:00,32.8,29.6,29.85,West,264,0.0,3.0,88,0.00,,OVC010,0.00,VWS V12.07,2013-04-07 16:07:00,
2013-04-07 11:08:00,32.8,29.6,29.85,West,264,0.0,2.0,88,0.00,,OVC010,0.00,VWS V12.07,2013-04-07 16:08:00,
2013-04-07 11:09:00,32.8,29.6,29.85,West,264,0.0,2.0,88,0.00,,OVC010,0.00,VWS V12.07,2013-04-07 16:09:00,
2013-04-07 11:14:00,32.9,29.7,29.86,West,264,2.0,3.0,88,0.00,,OVC010,0.00,VWS V12.07,2013-04-07 16:14:00,
2013-04-07 11:15:00,32.8,29.6,29.86,West,264,2.0,3.0,88,0.00,,OVC010,0.00,VWS V12.07,2013-04-07 16:15:00,
2013-04-07 11:19:00,32.7,29.3,29.86,ENE,61,2.0,4.0,87,0.00,,OVC010,0.00,VWS V12.07,2013-04-07 16:19:00,
2013-04-07 11:20:00,32.7,29.3,29.86,NE,42,0.0,4.0,87,0.00,,OVC010,0.00,VWS V12.07,2013-04-07 16:20:00,
2013-04-07 11:21:00,32.8,29.4,29.86,NE,36,0.0,4.0,87,0.00,,OVC010,0.00,VWS V12.07,2013-04-07 16:21:00,
2013-04-07 11:24:00,32.9,29.7,29.86,NE,36,0.0,4.0,88,0.00,,OVC010,0.00,VWS V12.07,2013-04-07 16:24:00,
2013-04-07 11:25:00,32.9,29.7,29.86,NE,36,0.0,4.0,88,0.00,,OVC010,0.00,VWS V12.07,2013-04-07 16:25:00,
2013-04-07 11:27:00,33.2,30.0,29.86,NE,36,0.0,4.0,88,0.00,,OVC010,0.00,VWS V12.07,2013-04-07 16:27:00,
2013-04-07 11:29:00,33.5,30.0,29.86,NE,36,0.0,3.0,87,0.00,,OVC010,0.00,VWS V12.07,2013-04-07 16:29:00,
2013-04-07 11:30:00,33.5,29.8,29.86,South,186,1.0,3.0,86,0.00,,OVC010,0.00,VWS V12.07,2013-04-07 16:30:00,
2013-04-07 11:31:00,33.5,29.8,29.86,South,187,0.0,3.0,86,0.00,,OVC010,0.00,VWS V12.07,2013-04-07 16:31:00,
2013-04-07 11:32:00,33.5,29.8,29.86,SSW,195,2.0,3.0,86,0.00,,OVC010,0.00,VWS V12.07,2013-04-07 16:32:00,
2013-04-07 11:35:00,33.4,29.4,29.86,SSW,210,0.0,3.0,85,0.00,,OVC017,0.00,VWS V12.07,2013-04-07 16:35:00,
2013-04-07 11:36:00,33.4,29.4,29.86,NE,40,0.0,3.0,85,0.00,,OVC017,0.00,VWS V12.07,2013-04-07 16:36:00,
2013-04-07 11:37:00,33.5,29.5,29.86,NE,40,0.0,3.0,85,0.00,,OVC017,0.00,VWS V12.07,2013-04-07 16:37:00,
2013-04-07 11:40:00,33.5,29.8,29.86,NE,34,0.0,3.0,86,0.00,,OVC017,0.00,VWS V12.07,2013-04-07 16:40:00,
2013-04-07 11:42:00,33.8,30.1,29.86,NE,34,0.0,3.0,86,0.00,,OVC017,0.00,VWS V12.07,2013-04-07 16:42:00,
2013-04-07 11:43:00,33.8,30.1,29.86,NE,34,0.0,3.0,86,0.00,,OVC017,0.00,VWS V12.07,2013-04-07 16:43:00,
2013-04-07 11:45:00,34.0,30.3,29.86,North,356,1.0,3.0,86,0.00,,OVC017,0.00,VWS V12.07,2013-04-07 16:45:00,
2013-04-07 11:47:00,34.1,30.4,29.86,WNW,288,1.0,3.0,86,0.00,,OVC017,0.00,VWS V12.07,2013-04-07 16:47:00,
2013-04-07 11:48:00,34.1,30.1,29.86,WNW,288,0.0,3.0,85,0.00,,OVC013,0.00,VWS V12.07,2013-04-07 16:48:00,
2013-04-07 11:50:00,34.1,29.8,29.86,WNW,288,0.0,3.0,84,0.00,,OVC013,0.00,VWS V12.07,2013-04-07 16:50:00,
2013-04-07 11:51:00,34.1,29.8,29.86,WNW,288,0.0,3.0,84,0.00,,OVC013,0.00,VWS V12.07,2013-04-07 16:51:00,
2013-04-07 11:53:00,34.3,30.3,29.86,WNW,288,0.0,3.0,85,0.00,,OVC013,0.00,VWS V12.07,2013-04-07 16:53:00,
2013-04-07 11:54:00,34.3,30.3,29.86,WNW,288,0.0,3.0,85,0.00,,OVC013,0.00,VWS V12.07,2013-04-07 16:54:00,
2013-04-07 11:56:00,34.6,30.6,29.86,NE,49,2.0,3.0,85,0.00,,OVC013,0.00,VWS V12.07,2013-04-07 16:56:00,
2013-04-07 11:58:00,34.7,30.4,29.86,NE,49,0.0,3.0,84,0.00,,OVC013,0.00,VWS V12.07,2013-04-07 16:58:00,
2013-04-07 12:00:00,34.9,30.6,29.86,NE,49,2.0,3.0,84,0.00,,OVC013,0.00,VWS V12.07,2013-04-07 17:00:00,
2013-04-07 12:01:00,34.9,30.3,29.86,NNW,340,2.0,3.0,83,0.00,,OVC013,0.00,VWS V12.07,2013-04-07 17:01:00,
2013-04-07 12:02:00,34.9,30.3,29.86,NNW,328,1.0,3.0,83,0.00,,OVC013,0.00,VWS V12.07,2013-04-07 17:02:00,
2013-04-07 12:03:00,34.9,30.3,29.86,West,269,1.0,3.0,83,0.00,,OVC013,0.00,VWS V12.07,2013-04-07 17:03:00,
2013-04-07 12:05:00,34.6,29.7,29.86,ENE,75,1.0,3.0,82,0.00,,OVC013,0.00,VWS V12.07,2013-04-07 17:05:00,
2013-04-07 12:06:00,34.6,29.7,29.86,ENE,75,1.0,3.0,82,0.00,,OVC013,0.00,VWS V12.07,2013-04-07 17:06:00,
2013-04-07 12:07:00,34.6,29.7,29.86,ENE,75,0.0,3.0,82,0.00,,OVC013,0.00,VWS V12.07,2013-04-07 17:07:00,
2013-04-07 12:09:00,34.7,29.8,29.86,NNE,25,1.0,2.0,82,0.00,,OVC013,0.00,VWS V12.07,2013-04-07 17:09:00,
2013-04-07 12:10:00,34.7,29.8,29.86,North,7,0.0,2.0,82,0.00,,OVC013,0.00,VWS V12.07,2013-04-07 17:10:00,
2013-04-07 12:12:00,34.7,29.5,29.86,NW,314,1.0,2.0,81,0.00,,OVC013,0.00,VWS V12.07,2013-04-07 17:12:00,
2013-04-07 12:14:00,34.6,29.1,29.87,SW,227,2.0,5.0,80,0.00,,OVC013,0.00,VWS V12.07,2013-04-07 17:14:00,
2013-04-07 12:16:00,34.6,29.1,29.87,SW,227,0.0,5.0,80,0.00,,OVC013,0.00,VWS V12.07,2013-04-07 17:16:00,
2013-04-07 12:17:00,34.6,29.1,29.87,SW,227,2.0,5.0,80,0.00,,OVC013,0.00,VWS V12.07,2013-04-07 17:17:00,
2013-04-07 12:19:00,34.6,29.1,29.87,North,0,2.0,2.0,80,0.00,,OVC013,0.00,VWS V12.07,2013-04-07 17:19:00,
2013-04-07 12:21:00,34.6,29.1,29.87,NW,318,0.0,2.0,80,0.00,,OVC013,0.00,VWS V12.07,2013-04-07 17:21:00,
2013-04-07 12:22:00,34.6,29.1,29.87,NNW,340,2.0,3.0,80,0.00,,OVC013,0.00,VWS V12.07,2013-04-07 17:22:00,
2013-04-07 12:24:00,34.7,29.2,29.87,NNE,13,2.0,4.0,80,0.00,,OVC013,0.00,VWS V12.07,2013-04-07 17:24:00,
2013-04-07 12:27:00,34.6,29.1,29.87,West,276,1.0,4.0,80,0.00,,OVC013,0.00,VWS V12.07,2013-04-07 17:27:00,
2013-04-07 12:28:00,34.6,29.1,29.87,West,276,0.0,4.0,80,0.00,,OVC013,0.00,VWS V12.07,2013-04-07 17:28:00,
2013-04-07 12:30:00,34.6,28.8,29.87,West,276,0.0,3.0,79,0.00,,OVC013,0.00,VWS V12.07,2013-04-07 17:30:00,
2013-04-07 12:32:00,34.4,28.9,29.87,West,276,0.0,3.0,80,0.00,,OVC013,0.00,VWS V12.07,2013-04-07 17:32:00,
2013-04-07 12:33:00,34.4,28.9,29.87,West,277,1.0,3.0,80,0.00,,OVC013,0.00,VWS V12.07,2013-04-07 17:33:00,
2013-04-07 12:35:00,34.4,28.3,29.87,NW,307,0.0,3.0,78,0.00,,OVC017,0.00,VWS V12.07,2013-04-07 17:35:00,
2013-04-07 12:37:00,34.4,28.6,29.87,NW,307,0.0,3.0,79,0.00,,OVC017,0.00,VWS V12.07,2013-04-07 17:37:00,
2013-04-07 12:38:00,34.6,28.8,29.87,NW,307,1.0,3.0,79,0.00,,OVC017,0.00,VWS V12.07,2013-04-07 17:38:00,
2013-04-07 12:41:00,34.7,28.5,29.87,NW,307,1.0,2.0,78,0.00,,OVC017,0.00,VWS V12.07,2013-04-07 17:41:00,
2013-04-07 12:42:00,35.0,29.2,29.87,WNW,289,3.0,3.0,79,0.00,,OVC017,0.00,VWS V12.07,2013-04-07 17:42:00,
2013-04-07 12:43:00,35.0,29.2,29.87,West,266,3.0,3.0,79,0.00,,OVC017,0.00,VWS V12.07,2013-04-07 17:43:00,
2013-04-07 12:47:00,35.0,28.9,29.87,West,266,1.0,3.0,78,0.00,,OVC017,0.00,VWS V12.07,2013-04-07 17:47:00,
2013-04-07 12:48:00,35.0,28.9,29.87,West,266,0.0,2.0,78,0.00,,OVC017,0.00,VWS V12.07,2013-04-07 17:48:00,
2013-04-07 12:52:00,35.3,29.5,29.87,West,267,0.0,2.0,79,0.00,,OVC017,0.00,VWS V12.07,2013-04-07 17:52:00,
2013-04-07 12:53:00,35.3,29.1,29.87,West,267,0.0,2.0,78,0.00,,OVC017,0.00,VWS V12.07,2013-04-07 17:53:00,
2013-04-07 12:54:00,35.3,29.1,29.87,West,267,0.0,2.0,78,0.00,,OVC017,0.00,VWS V12.07,2013-04-07 17:54:00,
2013-04-07 12:57:00,35.3,28.5,29.87,NNE,25,0.0,2.0,76,0.00,,OVC017,0.00,VWS V12.07,2013-04-07 17:57:00,
2013-04-07 12:59:00,35.3,28.5,29.87,NNE,25,1.0,2.0,76,0.00,,OVC017,0.00,VWS V12.07,2013-04-07 17:59:00,
2013-04-07 13:02:00,35.3,28.8,29.87,SSW,207,3.0,3.0,77,0.00,,OVC017,0.00,VWS V12.07,2013-04-07 18:02:00,
2013-04-07 13:04:00,35.0,28.5,29.87,SSW,213,1.0,4.0,77,0.00,,OVC017,0.00,VWS V12.07,2013-04-07 18:04:00,
2013-04-07 13:05:00,35.0,28.9,29.87,SSW,213,1.0,4.0,78,0.00,,OVC017,0.00,VWS V12.07,2013-04-07 18:05:00,
2013-04-07 13:07:00,35.2,29.4,29.87,North,0,0.0,4.0,79,0.00,,OVC017,0.00,VWS V12.07,2013-04-07 18:07:00,
2013-04-07 13:10:00,35.2,29.7,29.87,North,0,1.0,4.0,80,0.00,,OVC017,0.00,VWS V12.07,2013-04-07 18:10:00,
2013-04-07 13:13:00,35.2,29.7,29.87,North,0,0.0,4.0,80,0.00,,OVC017,0.00,VWS V12.07,2013-04-07 18:13:00,
2013-04-07 13:15:00,35.2,30.0,29.88,WNW,288,2.0,4.0,81,0.00,,OVC017,0.00,VWS V12.07,2013-04-07 18:15:00,
2013-04-07 13:18:00,35.0,29.5,29.88,West,267,3.0,4.0,80,0.00,,,0.00,VWS V12.07,2013-04-07 18:18:00,
2013-04-07 13:20:00,35.0,29.2,29.88,West,264,1.0,4.0,79,0.00,,OVC017,0.00,VWS V12.07,2013-04-07 18:20:00,
2013-04-07 13:23:00,35.0,28.9,29.88,SSE,155,4.0,5.0,78,0.00,,OVC017,0.00,VWS V12.07,2013-04-07 18:23:00,
2013-04-07 13:25:00,34.9,28.4,29.88,South,188,1.0,5.0,77,0.00,,OVC017,0.00,VWS V12.07,2013-04-07 18:25:00,
2013-04-07 13:29:00,35.2,29.0,29.88,South,188,0.0,2.0,78,0.00,,,0.00,VWS V12.07,2013-04-07 18:29:00,
2013-04-07 13:30:00,35.5,29.6,29.88,North,351,1.0,3.0,79,0.00,,OVC017,0.00,VWS V12.07,2013-04-07 18:30:00,
2013-04-07 13:31:00,35.5,29.3,29.88,SW,226,1.0,3.0,78,0.00,,OVC017,0.00,VWS V12.07,2013-04-07 18:31:00,
2013-04-07 13:34:00,35.6,29.7,29.88,SW,226,0.0,3.0,79,0.00,,OVC017,0.00,VWS V12.07,2013-04-07 18:34:00,
2013-04-07 13:35:00,35.8,29.6,29.88,SW,226,1.0,3.0,78,0.00,,OVC017,0.00,VWS V12.07,2013-04-07 18:35:00,
2013-04-07 13:36:00,35.8,29.6,29.88,SW,226,0.0,3.0,78,0.00,,OVC017,0.00,VWS V12.07,2013-04-07 18:36:00,
2013-04-07 13:37:00,35.8,29.6,29.88,SW,226,2.0,3.0,78,0.00,,OVC017,0.00,VWS V12.07,2013-04-07 18:37:00,
2013-04-07 13:40:00,35.9,29.1,29.88,West,275,0.0,4.0,76,0.00,,,0.00,VWS V12.07,2013-04-07 18:40:00,
2013-04-07 13:41:00,35.9,29.1,29.88,West,275,0.0,4.0,76,0.00,,,0.00,VWS V12.07,2013-04-07 18:41:00,
2013-04-07 13:42:00,35.9,29.1,29.88,SW,236,2.0,4.0,76,0.00,,,0.00,VWS V12.07,2013-04-07 18:42:00,
2013-04-07 13:45:00,35.9,29.1,29.88,SSW,198,0.0,4.0,76,0.00,,,0.00,VWS V12.07,2013-04-07 18:45:00,
2013-04-07 13:46:00,35.9,29.1,29.88,SSW,198,0.0,4.0,76,0.00,,,0.00,VWS V12.07,2013-04-07 18:46:00,
2013-04-07 13:47:00,35.9,29.1,29.88,SSW,192,3.0,4.0,76,0.00,,,0.00,VWS V12.07,2013-04-07 18:47:00,
2013-04-07 13:50:00,35.8,29.0,29.88,SW,217,1.0,4.0,76,0.00,,OVC019,0.00,VWS V12.07,2013-04-07 18:50:00,
2013-04-07 13:51:00,35.8,29.0,29.88,SW,217,1.0,4.0,76,0.00,,OVC019,0.00,VWS V12.07,2013-04-07 18:51:00,
2013-04-07 13:52:00,35.8,29.0,29.88,WSW,246,2.0,4.0,76,0.00,,OVC019,0.00,VWS V12.07,2013-04-07 18:52:00,
2013-04-07 13:53:00,35.8,29.0,29.88,WSW,246,2.0,4.0,76,0.00,,OVC019,0.00,VWS V12.07,2013-04-07 18:53:00,
2013-04-07 13:55:00,35.6,29.1,29.88,SSW,210,2.0,4.0,77,0.00,,OVC019,0.00,VWS V12.07,2013-04-07 18:55:00,
2013-04-07 13:56:00,35.6,29.1,29.88,SSW,210,1.0,4.0,77,0.00,,OVC019,0.00,VWS V12.07,2013-04-07 18:56:00,
2013-04-07 13:58:00,35.6,29.1,29.88,SW,217,4.0,4.0,77,0.00,,OVC019,0.00,VWS V12.07,2013-04-07 18:58:00,
2013-04-07 14:02:00,35.3,28.8,29.89,SSW,198,0.0,5.0,77,0.00,,OVC019,0.00,VWS V12.07,2013-04-07 19:02:00,
2013-04-07 14:03:00,35.5,29.0,29.89,SSW,210,3.0,5.0,77,0.00,,OVC019,0.00,VWS V12.07,2013-04-07 19:03:00,
2013-04-07 14:07:00,35.6,29.4,29.89,SSW,210,0.0,5.0,78,0.00,,OVC019,0.00,VWS V12.07,2013-04-07 19:07:00,
2013-04-07 14:08:00,35.8,29.6,29.89,SSW,210,0.0,0.0,78,0.00,,OVC019,0.00,VWS V12.07,2013-04-07 19:08:00,
2013-04-07 14:09:00,35.8,29.3,29.89,SSW,210,0.0,1.0,77,0.00,,OVC019,0.00,VWS V12.07,2013-04-07 19:09:00,
2013-04-07 14:12:00,35.9,28.8,29.89,South,184,2.0,4.0,75,0.00,,OVC019,0.00,VWS V12.07,2013-04-07 19:12:00,
2013-04-07 14:13:00,35.9,28.8,29.89,South,184,0.0,4.0,75,0.00,,OVC019,0.00,VWS V12.07,2013-04-07 19:13:00,
2013-04-07 14:14:00,35.9,28.8,29.89,South,184,1.0,4.0,75,0.00,,OVC019,0.00,VWS V12.07,2013-04-07 19:14:00,
2013-04-07 14:17:00,35.8,28.7,29.89,South,184,0.0,4.0,75,0.00,,OVC019,0.00,VWS V12.07,2013-04-07 19:17:00,
2013-04-07 14:18:00,35.9,28.8,29.89,South,184,0.0,4.0,75,0.00,,OVC019,0.00,VWS V12.07,2013-04-07 19:18:00,
2013-04-07 14:19:00,35.9,28.8,29.89,South,184,0.0,2.0,75,0.00,,OVC019,0.00,VWS V12.07,2013-04-07 19:19:00,
2013-04-07 14:20:00,35.9,28.8,29.89,South,184,0.0,2.0,75,0.00,,OVC019,0.00,VWS V12.07,2013-04-07 19:20:00,
2013-04-07 14:22:00,35.9,28.4,29.89,SW,217,3.0,4.0,74,0.00,,OVC019,0.00,VWS V12.07,2013-04-07 19:22:00,
2013-04-07 14:23:00,35.9,28.4,29.89,SSW,200,4.0,4.0,74,0.00,,OVC019,0.00,VWS V12.07,2013-04-07 19:23:00,
2013-04-07 14:24:00,35.9,28.4,29.89,SSW,203,2.0,5.0,74,0.00,,OVC019,0.00,VWS V12.07,2013-04-07 19:24:00,
2013-04-07 14:25:00,35.9,28.4,29.89,SSW,203,1.0,5.0,74,0.00,,OVC019,0.00,VWS V12.07,2013-04-07 19:25:00,
2013-04-07 14:27:00,35.9,28.8,29.89,SSW,203,1.0,5.0,75,0.00,,OVC019,0.00,VWS V12.07,2013-04-07 19:27:00,
2013-04-07 14:28:00,35.9,28.8,29.89,SSW,203,1.0,3.0,75,0.00,,OVC019,0.00,VWS V12.07,2013-04-07 19:28:00,
2013-04-07 14:30:00,36.0,28.9,29.89,SW,218,2.0,4.0,75,0.00,,OVC019,0.00,VWS V12.07,2013-04-07 19:30:00,
2013-04-07 14:33:00,36.0,28.9,29.89,SW,218,0.0,4.0,75,0.00,,OVC019,0.00,VWS V12.07,2013-04-07 19:33:00,
2013-04-07 14:35:00,36.2,29.0,29.89,SW,218,0.0,4.0,75,0.00,,OVC019,0.00,VWS V12.07,2013-04-07 19:35:00,
2013-04-07 14:38:00,36.3,28.8,29.89,SW,218,2.0,4.0,74,0.00,,OVC019,0.00,VWS V12.07,2013-04-07 19:38:00,
2013-04-07 14:39:00,36.2,28.4,29.89,SW,218,1.0,3.0,73,0.00,,OVC019,0.00,VWS V12.07,2013-04-07 19:39:00,
2013-04-07 14:41:00,36.2,28.4,29.89,SW,218,3.0,3.0,73,0.00,,OVC019,0.00,VWS V12.07,2013-04-07 19:41:00,
2013-04-07 14:43:00,36.3,28.5,29.89,SSW,201,0.0,5.0,73,0.00,,OVC019,0.00,VWS V12.07,2013-04-07 19:43:00,
2013-04-07 14:44:00,36.3,28.5,29.89,SSW,201,1.0,5.0,73,0.00,,OVC019,0.00,VWS V12.07,2013-04-07 19:44:00,
2013-04-07 14:46:00,36.3,28.5,29.89,SW,228,2.0,5.0,73,0.00,,OVC019,0.00,VWS V12.07,2013-04-07 19:46:00,
2013-04-07 14:47:00,36.3,28.5,29.89,SW,228,0.0,5.0,73,0.00,,OVC019,0.00,VWS V12.07,2013-04-07 19:47:00,
2013-04-07 14:48:00,36.5,29.0,29.89,NNE,27,2.0,5.0,74,0.00,,OVC019,0.00,VWS V12.07,2013-04-07 19:48:00,
2013-04-07 14:50:00,36.5,29.0,29.89,NNE,27,0.0,3.0,74,0.00,,OVC019,0.00,VWS V12.07,2013-04-07 19:50:00,
2013-04-07 14:51:00,36.6,29.4,29.89,NNE,27,1.0,3.0,75,0.00,,OVC019,0.00,VWS V12.07,2013-04-07 19:51:00,
2013-04-07 14:52:00,36.6,29.4,29.89,SW,236,3.0,4.0,75,0.00,,OVC019,0.00,VWS V12.07,2013-04-07 19:52:00,
2013-04-07 14:53:00,36.6,29.1,29.89,WSW,243,0.0,4.0,74,0.00,,OVC019,0.00,VWS V12.07,2013-04-07 19:53:00,
2013-04-07 14:57:00,36.6,28.8,29.89,WSW,243,1.0,4.0,73,0.00,,OVC019,0.00,VWS V12.07,2013-04-07 19:57:00,
2013-04-07 14:58:00,36.6,28.8,29.89,WSW,243,0.0,2.0,73,0.00,,OVC019,0.00,VWS V12.07,2013-04-07 19:58:00,
2013-04-07 15:02:00,36.6,28.8,29.89,NE,52,1.0,3.0,73,0.00,,OVC019,0.00,VWS V12.07,2013-04-07 20:02:00,
2013-04-07 15:03:00,36.6,28.8,29.89,NE,52,1.0,3.0,73,0.00,,OVC019,0.00,VWS V12.07,2013-04-07 20:03:00,
2013-04-07 15:07:00,36.6,28.8,29.89,East,79,1.0,3.0,73,0.00,,OVC019,0.00,VWS V12.07,2013-04-07 20:07:00,
2013-04-07 15:08:00,36.6,28.8,29.89,East,79,1.0,3.0,73,0.00,,OVC019,0.00,VWS V12.07,2013-04-07 20:08:00,
2013-04-07 15:10:00,36.3,28.5,29.89,SW,217,1.0,3.0,73,0.00,,OVC019,0.00,VWS V12.07,2013-04-07 20:10:00,
2013-04-07 15:12:00,36.3,28.5,29.89,SW,217,0.0,3.0,73,0.00,,OVC019,0.00,VWS V12.07,2013-04-07 20:12:00,
2013-04-07 15:13:00,36.3,28.8,29.89,SW,217,0.0,3.0,74,0.00,,OVC019,0.00,VWS V12.07,2013-04-07 20:13:00,
2013-04-07 15:15:00,36.3,29.1,29.89,SW,217,0.0,3.0,75,0.00,,OVC019,0.00,VWS V12.07,2013-04-07 20:15:00,
2013-04-07 15:17:00,36.5,29.0,29.89,SW,217,0.0,3.0,74,0.00,,OVC019,0.00,VWS V12.07,2013-04-07 20:17:00,
2013-04-07 15:18:00,36.3,29.1,29.89,SW,217,0.0,3.0,75,0.00,,OVC019,0.00,VWS V12.07,2013-04-07 20:18:00,
2013-04-07 15:21:00,36.6,29.1,29.89,SW,217,0.0,0.0,74,0.00,,OVC019,0.00,VWS V12.07,2013-04-07 20:21:00,
2013-04-07 15:22:00,36.6,28.8,29.89,SW,217,1.0,1.0,73,0.00,,OVC019,0.00,VWS V12.07,2013-04-07 20:22:00,
2013-04-07 15:23:00,36.6,28.8,29.89,SW,217,1.0,2.0,73,0.00,,OVC019,0.00,VWS V12.07,2013-04-07 20:23:00,
2013-04-07 15:26:00,36.6,29.1,29.89,SW,217,2.0,3.0,74,0.00,,OVC019,0.00,VWS V12.07,2013-04-07 20:26:00,
2013-04-07 15:27:00,36.6,28.8,29.89,SSW,212,1.0,4.0,73,0.00,,OVC019,0.00,VWS V12.07,2013-04-07 20:27:00,
2013-04-07 15:28:00,36.5,28.7,29.89,SSW,212,1.0,4.0,73,0.00,,OVC019,0.00,VWS V12.07,2013-04-07 20:28:00,
2013-04-07 15:29:00,36.5,29.0,29.89,SSW,212,2.0,4.0,74,0.00,,OVC019,0.00,VWS V12.07,2013-04-07 20:29:00,
2013-04-07 15:31:00,36.5,29.3,29.88,SSW,212,0.0,4.0,75,0.00,,OVC019,0.00,VWS V12.07,2013-04-07 20:31:00,
2013-04-07 15:33:00,36.5,29.7,29.88,SSW,212,0.0,4.0,76,0.00,,OVC019,0.00,VWS V12.07,2013-04-07 20:33:00,
2013-04-07 15:34:00,36.3,29.5,29.88,SSW,212,0.0,4.0,76,0.00,,OVC021,0.00,VWS V12.07,2013-04-07 20:34:00,
2013-04-07 15:36:00,36.3,29.8,29.88,SSW,212,2.0,4.0,77,0.00,,OVC021,0.00,VWS V12.07,2013-04-07 20:36:00,
2013-04-07 15:38:00,36.3,29.1,29.88,SSW,212,0.0,4.0,75,0.00,,OVC021,0.00,VWS V12.07,2013-04-07 20:38:00,
2013-04-07 15:40:00,36.3,29.1,29.88,SSE,154,3.0,3.0,75,0.00,,OVC021,0.00,VWS V12.07,2013-04-07 20:40:00,
2013-04-07 15:42:00,36.3,28.8,29.88,SSE,154,1.0,3.0,74,0.00,,OVC021,0.00,VWS V12.07,2013-04-07 20:42:00,
2013-04-07 15:44:00,36.3,28.8,29.89,SSE,154,2.0,3.0,74,0.00,,OVC021,0.00,VWS V12.07,2013-04-07 20:44:00,
2013-04-07 15:45:00,36.5,29.0,29.89,SSE,154,2.0,3.0,74,0.00,,OVC021,0.00,VWS V12.07,2013-04-07 20:45:00,
2013-04-07 15:48:00,36.6,28.8,29.89,SSE,151,2.0,4.0,73,0.00,,OVC021,0.00,VWS V12.07,2013-04-07 20:48:00,
2013-04-07 15:50:00,36.6,29.1,29.89,SSE,150,3.0,4.0,74,0.00,,OVC021,0.00,VWS V12.07,2013-04-07 20:50:00,
2013-04-07 15:51:00,36.6,29.1,29.89,SSE,150,4.0,4.0,74,0.00,,OVC021,0.00,VWS V12.07,2013-04-07 20:51:00,
2013-04-07 15:53:00,36.6,28.8,29.89,SSE,149,3.0,4.0,73,0.00,,OVC021,0.00,VWS V12.07,2013-04-07 20:53:00,
2013-04-07 15:56:00,36.8,29.0,29.89,SSE,149,1.0,4.0,73,0.00,,OVC021,0.00,VWS V12.07,2013-04-07 20:56:00,
2013-04-07 15:57:00,36.8,29.0,29.89,SSE,149,2.0,4.0,73,0.00,,OVC021,0.00,VWS V12.07,2013-04-07 20:57:00,
2013-04-07 15:58:00,36.8,29.0,29.89,SSE,149,2.0,4.0,73,0.00,,OVC021,0.00,VWS V12.07,2013-04-07 20:58:00,
2013-04-07 16:01:00,36.6,28.8,29.88,SSE,149,2.0,3.0,73,0.00,,OVC021,0.00,VWS V12.07,2013-04-07 21:01:00,
2013-04-07 16:02:00,36.6,28.8,29.88,SSE,149,1.0,3.0,73,0.00,,OVC021,0.00,VWS V12.07,2013-04-07 21:02:00,
2013-04-07 16:03:00,36.5,28.7,29.88,SSE,149,1.0,3.0,73,0.00,,OVC021,0.00,VWS V12.07,2013-04-07 21:03:00,
2013-04-07 16:07:00,36.5,28.4,29.88,SSE,149,1.0,3.0,72,0.00,,OVC021,0.00,VWS V12.07,2013-04-07 21:07:00,
2013-04-07 16:08:00,36.6,28.4,29.88,SSE,149,0.0,2.0,72,0.00,,OVC021,0.00,VWS V12.07,2013-04-07 21:08:00,
2013-04-07 16:12:00,37.5,28.6,29.88,South,176,1.0,3.0,70,0.00,,OVC021,0.00,VWS V12.07,2013-04-07 21:12:00,
2013-04-07 16:13:00,37.5,28.6,29.88,South,176,1.0,3.0,70,0.00,,OVC021,0.00,VWS V12.07,2013-04-07 21:13:00,
2013-04-07 16:14:00,37.5,28.6,29.88,South,176,2.0,3.0,70,0.00,,OVC021,0.00,VWS V12.07,2013-04-07 21:14:00,
2013-04-07 16:17:00,37.8,28.9,29.88,South,176,0.0,3.0,70,0.00,,OVC021,0.00,VWS V12.07,2013-04-07 21:17:00,
2013-04-07 16:18:00,37.8,28.9,29.88,South,176,2.0,3.0,70,0.00,,OVC021,0.00,VWS V12.07,2013-04-07 21:18:00,
2013-04-07 16:19:00,37.8,28.6,29.88,South,176,0.0,3.0,69,0.00,,OVC021,0.00,VWS V12.07,2013-04-07 21:19:00,
2013-04-07 16:22:00,37.9,29.0,29.88,South,176,1.0,3.0,70,0.00,,OVC021,0.00,VWS V12.07,2013-04-07 21:22:00,
2013-04-07 16:24:00,37.9,28.6,29.88,South,176,0.0,3.0,69,0.00,,OVC021,0.00,VWS V12.07,2013-04-07 21:24:00,
2013-04-07 16:25:00,38.0,28.8,29.88,South,176,2.0,3.0,69,0.00,,OVC021,0.00,VWS V12.07,2013-04-07 21:25:00,
2013-04-07 16:28:00,38.2,28.6,29.88,South,176,1.0,3.0,68,0.00,,OVC021,0.00,VWS V12.07,2013-04-07 21:28:00,
2013-04-07 16:29:00,38.3,28.7,29.88,South,176,0.0,3.0,68,0.00,,OVC021,0.00,VWS V12.07,2013-04-07 21:29:00,
2013-04-07 16:30:00,38.3,28.7,29.88,South,176,0.0,3.0,68,0.00,,OVC021,0.00,VWS V12.07,2013-04-07 21:30:00,
2013-04-07 16:33:00,38.3,28.7,29.88,SSE,168,2.0,3.0,68,0.00,,OVC021,0.00,VWS V12.07,2013-04-07 21:33:00,
2013-04-07 16:34:00,38.3,28.7,29.88,SSE,168,3.0,4.0,68,0.00,,OVC021,0.00,VWS V12.07,2013-04-07 21:34:00,
2013-04-07 16:35:00,38.3,28.7,29.88,SSE,168,1.0,4.0,68,0.00,,OVC021,0.00,VWS V12.07,2013-04-07 21:35:00,
2013-04-07 16:36:00,38.2,28.6,29.88,SSE,168,1.0,4.0,68,0.00,,OVC021,0.00,VWS V12.07,2013-04-07 21:36:00,
2013-04-07 16:39:00,38.0,28.4,29.88,SSE,168,2.0,3.0,68,0.00,,OVC021,0.00,VWS V12.07,2013-04-07 21:39:00,
2013-04-07 16:40:00,38.0,28.4,29.88,SSE,168,3.0,3.0,68,0.00,,OVC021,0.00,VWS V12.07,2013-04-07 21:40:00,
2013-04-07 16:42:00,37.8,28.2,29.88,SSE,168,1.0,3.0,68,0.00,,OVC021,0.00,VWS V12.07,2013-04-07 21:42:00,
2013-04-07 16:44:00,37.8,28.6,29.87,SSE,168,2.0,3.0,69,0.00,,OVC021,0.00,VWS V12.07,2013-04-07 21:44:00,
2013-04-07 16:45:00,37.8,28.6,29.87,SSE,168,0.0,3.0,69,0.00,,OVC021,0.00,VWS V12.07,2013-04-07 21:45:00,
2013-04-07 16:47:00,37.8,28.6,29.87,SSE,168,2.0,3.0,69,0.00,,OVC021,0.00,VWS V12.07,2013-04-07 21:47:00,
2013-04-07 16:50:00,37.9,28.6,29.87,SSE,168,2.0,2.0,69,0.00,,OVC023,0.00,VWS V12.07,2013-04-07 21:50:00,
2013-04-07 16:52:00,37.9,28.3,29.87,SSE,168,1.0,3.0,68,0.00,,OVC023,0.00,VWS V12.07,2013-04-07 21:52:00,
2013-04-07 16:55:00,37.9,28.6,29.87,SSE,168,1.0,3.0,69,0.00,,OVC023,0.00,VWS V12.07,2013-04-07 21:55:00,
2013-04-07 16:57:00,37.9,28.3,29.87,SSE,168,0.0,3.0,68,0.00,,OVC023,0.00,VWS V12.07,2013-04-07 21:57:00,
2013-04-07 16:58:00,37.9,28.3,29.87,SSE,168,1.0,3.0,68,0.00,,OVC023,0.00,VWS V12.07,2013-04-07 21:58:00,
2013-04-07 17:00:00,37.9,28.6,29.87,SSE,168,1.0,3.0,69,0.00,,OVC023,0.00,VWS V12.07,2013-04-07 22:00:00,
2013-04-07 17:03:00,37.9,28.6,29.87,SSE,168,1.0,3.0,69,0.00,,OVC023,0.00,VWS V12.07,2013-04-07 22:03:00,
2013-04-07 17:06:00,37.9,28.3,29.87,SSE,168,0.0,3.0,68,0.00,,OVC023,0.00,VWS V12.07,2013-04-07 22:06:00,
2013-04-07 17:08:00,38.0,28.4,29.87,SSE,168,0.0,0.0,68,0.00,,OVC023,0.00,VWS V12.07,2013-04-07 22:08:00,
2013-04-07 17:09:00,38.0,28.4,29.87,SSE,168,0.0,1.0,68,0.00,,OVC023,0.00,VWS V12.07,2013-04-07 22:09:00,
2013-04-07 17:12:00,38.2,28.2,29.87,SSE,168,0.0,1.0,67,0.00,,OVC023,0.00,VWS V12.07,2013-04-07 22:12:00,
2013-04-07 17:13:00,38.3,28.3,29.87,SSE,168,1.0,2.0,67,0.00,,OVC023,0.00,VWS V12.07,2013-04-07 22:13:00,
2013-04-07 17:14:00,38.3,28.3,29.87,SSE,168,1.0,2.0,67,0.00,,OVC023,0.00,VWS V12.07,2013-04-07 22:14:00,
2013-04-07 17:17:00,38.3,28.3,29.87,SSE,168,1.0,2.0,67,0.00,,OVC023,0.00,VWS V12.07,2013-04-07 22:17:00,
2013-04-07 17:18:00,38.3,28.3,29.87,SSE,168,1.0,2.0,67,0.00,,OVC023,0.00,VWS V12.07,2013-04-07 22:18:00,
2013-04-07 17:19:00,38.3,28.3,29.87,SSE,168,0.0,2.0,67,0.00,,OVC023,0.00,VWS V12.07,2013-04-07 22:19:00,
2013-04-07 17:22:00,38.5,28.5,29.87,SSE,168,0.0,2.0,67,0.00,,OVC023,0.00,VWS V12.07,2013-04-07 22:22:00,
2013-04-07 17:23:00,38.5,28.5,29.87,SSE,168,0.0,2.0,67,0.00,,OVC023,0.00,VWS V12.07,2013-04-07 22:23:00,
2013-04-07 17:25:00,38.5,28.5,29.87,SSE,168,1.0,2.0,67,0.00,,OVC023,0.00,VWS V12.07,2013-04-07 22:25:00,
2013-04-07 17:28:00,38.5,28.5,29.87,SSE,168,1.0,2.0,67,0.00,,OVC023,0.00,VWS V12.07,2013-04-07 22:28:00,
2013-04-07 17:30:00,38.5,28.5,29.86,SSE,168,0.0,2.0,67,0.00,,OVC023,0.00,VWS V12.07,2013-04-07 22:30:00,
2013-04-07 17:33:00,38.6,28.6,29.86,SSE,168,0.0,2.0,67,0.00,,OVC023,0.00,VWS V12.07,2013-04-07 22:33:00,
2013-04-07 17:35:00,38.8,28.8,29.86,SSE,168,0.0,2.0,67,0.00,,CLR,0.00,VWS V12.07,2013-04-07 22:35:00,
2013-04-07 17:36:00,38.8,28.8,29.86,SSE,168,0.0,2.0,67,0.00,,CLR,0.00,VWS V12.07,2013-04-07 22:36:00,
2013-04-07 17:38:00,38.9,28.9,29.86,SSE,168,0.0,1.0,67,0.00,,CLR,0.00,VWS V12.07,2013-04-07 22:38:00,
2013-04-07 17:39:00,38.9,28.9,29.86,SSE,168,0.0,1.0,67,0.00,,CLR,0.00,VWS V12.07,2013-04-07 22:39:00,
2013-04-07 17:40:00,39.1,29.1,29.86,SSE,168,0.0,1.0,67,0.00,,CLR,0.00,VWS V12.07,2013-04-07 22:40:00,
2013-04-07 17:41:00,39.1,28.7,29.86,SSE,168,0.0,1.0,66,0.00,,CLR,0.00,VWS V12.07,2013-04-07 22:41:00,
2013-04-07 17:44:00,39.5,28.7,29.86,SSE,168,0.0,1.0,65,0.00,,CLR,0.00,VWS V12.07,2013-04-07 22:44:00,
2013-04-07 17:45:00,39.6,28.8,29.86,SSE,168,0.0,1.0,65,0.00,,CLR,0.00,VWS V12.07,2013-04-07 22:45:00,
2013-04-07 17:47:00,39.9,29.1,29.86,SSE,168,0.0,1.0,65,0.00,,CLR,0.00,VWS V12.07,2013-04-07 22:47:00,
2013-04-07 17:49:00,40.1,29.3,29.86,SSE,168,0.0,1.0,65,0.00,,CLR,0.00,VWS V12.07,2013-04-07 22:49:00,
2013-04-07 17:51:00,40.1,29.3,29.86,SSE,168,1.0,1.0,65,0.00,,CLR,0.00,VWS V12.07,2013-04-07 22:51:00,
2013-04-07 17:52:00,40.1,29.3,29.86,SSE,168,0.0,2.0,65,0.00,,CLR,0.00,VWS V12.07,2013-04-07 22:52:00,
2013-04-07 17:54:00,40.1,29.3,29.86,SSE,168,0.0,2.0,65,0.00,,CLR,0.00,VWS V12.07,2013-04-07 22:54:00,
2013-04-07 17:56:00,40.1,29.3,29.86,SSE,168,0.0,2.0,65,0.00,,CLR,0.00,VWS V12.07,2013-04-07 22:56:00,
2013-04-07 17:57:00,40.1,29.7,29.86,SSE,168,1.0,2.0,66,0.00,,CLR,0.00,VWS V12.07,2013-04-07 22:57:00,
2013-04-07 17:58:00,39.9,29.1,29.86,SSE,168,0.0,2.0,65,0.00,,CLR,0.00,VWS V12.07,2013-04-07 22:58:00,
2013-04-07 18:00:00,39.9,29.1,29.86,SSE,168,1.0,3.0,65,0.00,,CLR,0.00,VWS V12.07,2013-04-07 23:00:00,
2013-04-07 18:02:00,39.9,29.1,29.86,SSE,168,0.0,3.0,65,0.00,,CLR,0.00,VWS V12.07,2013-04-07 23:02:00,
2013-04-07 18:03:00,39.9,29.1,29.86,SSE,168,0.0,3.0,65,0.00,,CLR,0.00,VWS V12.07,2013-04-07 23:03:00,
2013-04-07 18:05:00,39.9,28.7,29.86,SSE,168,0.0,3.0,64,0.00,,CLR,0.00,VWS V12.07,2013-04-07 23:05:00,
2013-04-07 18:08:00,39.9,28.7,29.86,SSE,168,3.0,3.0,64,0.00,,CLR,0.00,VWS V12.07,2013-04-07 23:08:00,
2013-04-07 18:10:00,39.8,29.0,29.86,SSE,168,0.0,3.0,65,0.00,,CLR,0.00,VWS V12.07,2013-04-07 23:10:00,
2013-04-07 18:13:00,39.6,28.8,29.86,SSE,168,1.0,3.0,65,0.00,,CLR,0.00,VWS V12.07,2013-04-07 23:13:00,
2013-04-07 18:15:00,39.5,28.7,29.86,SSE,168,1.0,3.0,65,0.00,,CLR,0.00,VWS V12.07,2013-04-07 23:15:00,
2013-04-07 18:18:00,39.5,28.7,29.86,SSE,168,1.0,0.0,65,0.00,,CLR,0.00,VWS V12.07,2013-04-07 23:18:00,
2013-04-07 18:19:00,39.3,28.5,29.86,SSE,168,1.0,3.0,65,0.00,,CLR,0.00,VWS V12.07,2013-04-07 23:19:00,
2013-04-07 18:22:00,39.3,28.5,29.86,SSE,168,0.0,3.0,65,0.00,,CLR,0.00,VWS V12.07,2013-04-07 23:22:00,
2013-04-07 18:23:00,39.3,28.5,29.86,SSE,168,0.0,3.0,65,0.00,,CLR,0.00,VWS V12.07,2013-04-07 23:23:00,
2013-04-07 18:24:00,39.3,28.5,29.86,SSE,168,0.0,3.0,65,0.00,,CLR,0.00,VWS V12.07,2013-04-07 23:24:00,
2013-04-07 18:27:00,39.3,28.9,29.86,SSE,168,0.0,3.0,66,0.00,,CLR,0.00,VWS V12.07,2013-04-07 23:27:00,
2013-04-07 18:28:00,39.3,28.5,29.86,SSE,168,0.0,2.0,65,0.00,,CLR,0.00,VWS V12.07,2013-04-07 23:28:00,
2013-04-07 18:29:00,39.3,28.9,29.86,SSE,168,4.0,4.0,66,0.00,,CLR,0.00,VWS V12.07,2013-04-07 23:29:00,
2013-04-07 18:30:00,39.3,28.9,29.86,SSE,160,1.0,5.0,66,0.00,,CLR,0.00,VWS V12.07,2013-04-07 23:30:00,
2013-04-07 18:32:00,39.2,28.8,29.86,SSE,160,0.0,5.0,66,0.00,,CLR,0.00,VWS V12.07,2013-04-07 23:32:00,
2013-04-07 18:34:00,39.2,28.8,29.86,SSE,160,0.0,5.0,66,0.00,,CLR,0.00,VWS V12.07,2013-04-07 23:34:00,
2013-04-07 18:35:00,39.2,28.8,29.86,SSE,167,2.0,5.0,66,0.00,,CLR,0.00,VWS V12.07,2013-04-07 23:35:00,
2013-04-07 18:37:00,39.2,28.8,29.86,SSE,167,0.0,5.0,66,0.00,,CLR,0.00,VWS V12.07,2013-04-07 23:37:00,
2013-04-07 18:40:00,39.2,28.8,29.86,SSE,167,0.0,4.0,66,0.00,,CLR,0.00,VWS V12.07,2013-04-07 23:40:00,
2013-04-07 18:41:00,39.2,29.2,29.86,SSE,167,0.0,4.0,67,0.00,,CLR,0.00,VWS V12.07,2013-04-07 23:41:00,
2013-04-07 18:42:00,39.2,29.2,29.86,SSE,167,0.0,4.0,67,0.00,,CLR,0.00,VWS V12.07,2013-04-07 23:42:00,
2013-04-07 18:45:00,39.1,28.7,29.86,SSE,164,0.0,4.0,66,0.00,,CLR,0.00,VWS V12.07,2013-04-07 23:45:00,
2013-04-07 18:46:00,39.1,29.1,29.86,East,79,1.0,4.0,67,0.00,,CLR,0.00,VWS V12.07,2013-04-07 23:46:00,
2013-04-07 18:48:00,39.1,29.1,29.86,East,79,0.0,4.0,67,0.00,,CLR,0.00,VWS V12.07,2013-04-07 23:48:00,
2013-04-07 18:50:00,39.1,29.1,29.86,East,79,0.0,3.0,67,0.00,,CLR,0.00,VWS V12.07,2013-04-07 23:50:00,
2013-04-07 18:52:00,39.1,29.1,29.86,East,79,0.0,3.0,67,0.00,,CLR,0.00,VWS V12.07,2013-04-07 23:52:00,
2013-04-07 18:53:00,38.9,28.9,29.86,East,79,0.0,3.0,67,0.00,,CLR,0.00,VWS V12.07,2013-04-07 23:53:00,
2013-04-07 18:55:00,38.9,28.9,29.86,East,79,0.0,3.0,67,0.00,,CLR,0.00,VWS V12.07,2013-04-07 23:55:00,
2013-04-07 18:58:00,38.8,28.8,29.86,East,79,0.0,3.0,67,0.00,,CLR,0.00,VWS V12.07,2013-04-07 23:58:00,
2013-04-07 19:00:00,38.8,29.2,29.86,SSE,165,2.0,3.0,68,0.00,,CLR,0.00,VWS V12.07,2013-04-08 00:00:00,
2013-04-07 19:01:00,38.8,29.2,29.86,SSE,165,0.0,3.0,68,0.00,,CLR,0.00,VWS V12.07,2013-04-08 00:01:00,
2013-04-07 19:03:00,38.6,29.0,29.86,SSE,165,1.0,3.0,68,0.00,,CLR,0.00,VWS V12.07,2013-04-08 00:03:00,
2013-04-07 19:04:00,38.6,29.0,29.86,SSE,165,0.0,3.0,68,0.00,,CLR,0.00,VWS V12.07,2013-04-08 00:04:00,
2013-04-07 19:05:00,38.5,28.9,29.86,SSE,165,0.0,3.0,68,0.00,,CLR,0.00,VWS V12.07,2013-04-08 00:05:00,
2013-04-07 19:06:00,38.5,28.9,29.86,SSE,165,0.0,3.0,68,0.00,,CLR,0.00,VWS V12.07,2013-04-08 00:06:00,
2013-04-07 19:08:00,38.5,28.9,29.86,SSE,165,0.0,0.0,68,0.00,,CLR,0.00,VWS V12.07,2013-04-08 00:08:00,
2013-04-07 19:09:00,38.3,28.7,29.86,ESE,112,1.0,2.0,68,0.00,,CLR,0.00,VWS V12.07,2013-04-08 00:09:00,
2013-04-07 19:11:00,38.3,28.7,29.86,ESE,112,1.0,2.0,68,0.00,,CLR,0.00,VWS V12.07,2013-04-08 00:11:00,
2013-04-07 19:12:00,38.3,28.7,29.86,ESE,112,1.0,2.0,68,0.00,,CLR,0.00,VWS V12.07,2013-04-08 00:12:00,
2013-04-07 19:14:00,38.3,29.0,29.86,ESE,112,0.0,2.0,69,0.00,,CLR,0.00,VWS V12.07,2013-04-08 00:14:00,
2013-04-07 19:15:00,38.3,29.0,29.86,ESE,112,0.0,2.0,69,0.00,,CLR,0.00,VWS V12.07,2013-04-08 00:15:00,
2013-04-07 19:17:00,38.2,28.9,29.86,ESE,112,0.0,2.0,69,0.00,,CLR,0.00,VWS V12.07,2013-04-08 00:17:00,
2013-04-07 19:19:00,38.2,29.3,29.86,ESE,112,1.0,2.0,70,0.00,,CLR,0.00,VWS V12.07,2013-04-08 00:19:00,
2013-04-07 19:20:00,38.2,28.9,29.86,ENE,70,2.0,3.0,69,0.00,,CLR,0.00,VWS V12.07,2013-04-08 00:20:00,
2013-04-07 19:22:00,38.0,28.8,29.86,ENE,77,2.0,3.0,69,0.00,,CLR,0.00,VWS V12.07,2013-04-08 00:22:00,
2013-04-07 19:24:00,38.0,28.8,29.86,ENE,58,1.0,3.0,69,0.00,,CLR,0.00,VWS V12.07,2013-04-08 00:24:00,
2013-04-07 19:25:00,38.0,29.1,29.86,ENE,57,2.0,3.0,70,0.00,,CLR,0.00,VWS V12.07,2013-04-08 00:25:00,
2013-04-07 19:27:00,37.9,29.0,29.86,ENE,57,0.0,3.0,70,0.00,,CLR,0.00,VWS V12.07,2013-04-08 00:27:00,
2013-04-07 19:28:00,37.9,29.0,29.86,ENE,62,1.0,3.0,70,0.00,,CLR,0.00,VWS V12.07,2013-04-08 00:28:00,
2013-04-07 19:29:00,37.9,29.0,29.87,ENE,77,1.0,3.0,70,0.00,,CLR,0.00,VWS V12.07,2013-04-08 00:29:00,
2013-04-07 19:31:00,37.8,28.9,29.87,ENE,77,0.0,3.0,70,0.00,,CLR,0.00,VWS V12.07,2013-04-08 00:31:00,
2013-04-07 19:32:00,37.8,28.9,29.87,ENE,66,0.0,3.0,70,0.00,,CLR,0.00,VWS V12.07,2013-04-08 00:32:00,
2013-04-07 19:33:00,37.8,28.9,29.87,ENE,66,0.0,3.0,70,0.00,,CLR,0.00,VWS V12.07,2013-04-08 00:33:00,
2013-04-07 19:34:00,37.6,28.7,29.87,ENE,66,0.0,3.0,70,0.00,,CLR,0.00,VWS V12.07,2013-04-08 00:34:00,
2013-04-07 19:37:00,37.5,29.0,29.87,ENE,66,0.0,3.0,71,0.00,,CLR,0.00,VWS V12.07,2013-04-08 00:37:00,
2013-04-07 19:38:00,37.3,28.8,29.87,ENE,66,0.0,2.0,71,0.00,,CLR,0.00,VWS V12.07,2013-04-08 00:38:00,
2013-04-07 19:39:00,37.3,28.8,29.87,ENE,66,1.0,2.0,71,0.00,,CLR,0.00,VWS V12.07,2013-04-08 00:39:00,
2013-04-07 19:42:00,37.2,28.7,29.87,ENE,66,1.0,2.0,71,0.00,,CLR,0.00,VWS V12.07,2013-04-08 00:42:00,
2013-04-07 19:43:00,37.2,28.7,29.87,ENE,66,0.0,2.0,71,0.00,,CLR,0.00,VWS V12.07,2013-04-08 00:43:00,
2013-04-07 19:44:00,37.0,28.5,29.87,ENE,66,0.0,2.0,71,0.00,,CLR,0.00,VWS V12.07,2013-04-08 00:44:00,
2013-04-07 19:45:00,37.0,28.8,29.87,ENE,66,1.0,2.0,72,0.00,,CLR,0.00,VWS V12.07,2013-04-08 00:45:00,
2013-04-07 19:47:00,36.9,28.7,29.87,ENE,66,1.0,2.0,72,0.00,,CLR,0.00,VWS V12.07,2013-04-08 00:47:00,
2013-04-07 19:48:00,37.0,28.8,29.87,ENE,66,1.0,2.0,72,0.00,,CLR,0.00,VWS V12.07,2013-04-08 00:48:00,
2013-04-07 19:49:00,36.8,28.6,29.87,ENE,66,2.0,3.0,72,0.00,,CLR,0.00,VWS V12.07,2013-04-08 00:49:00,
2013-04-07 19:50:00,36.8,28.6,29.87,ENE,66,1.0,3.0,72,0.00,,CLR,0.00,VWS V12.07,2013-04-08 00:50:00,
2013-04-07 19:52:00,36.6,28.4,29.87,ENE,66,1.0,3.0,72,0.00,,CLR,0.00,VWS V12.07,2013-04-08 00:52:00,
2013-04-07 19:53:00,36.6,28.8,29.87,ENE,66,0.0,3.0,73,0.00,,CLR,0.00,VWS V12.07,2013-04-08 00:53:00,
2013-04-07 19:54:00,36.6,28.8,29.87,ENE,66,0.0,3.0,73,0.00,,CLR,0.00,VWS V12.07,2013-04-08 00:54:00,
2013-04-07 19:55:00,36.5,28.7,29.87,ENE,66,0.0,3.0,73,0.00,,CLR,0.00,VWS V12.07,2013-04-08 00:55:00,
2013-04-07 19:58:00,36.5,28.7,29.87,ENE,66,0.0,2.0,73,0.00,,CLR,0.00,VWS V12.07,2013-04-08 00:58:00,
2013-04-07 19:59:00,36.5,28.7,29.88,ENE,66,0.0,2.0,73,0.00,,CLR,0.00,VWS V12.07,2013-04-08 00:59:00,
2013-04-07 20:01:00,36.3,28.5,29.88,ENE,66,0.0,2.0,73,0.00,,CLR,0.00,VWS V12.07,2013-04-08 01:01:00,
2013-04-07 20:04:00,36.2,28.4,29.88,ENE,65,0.0,2.0,73,0.00,,CLR,0.00,VWS V12.07,2013-04-08 01:04:00,
2013-04-07 20:05:00,36.2,28.4,29.88,ENE,66,0.0,2.0,73,0.00,,CLR,0.00,VWS V12.07,2013-04-08 01:05:00,
2013-04-07 20:06:00,36.2,28.4,29.88,ENE,66,0.0,2.0,73,0.00,,CLR,0.00,VWS V12.07,2013-04-08 01:06:00,
2013-04-07 20:09:00,36.0,28.5,29.88,ENE,66,0.0,2.0,74,0.00,,CLR,0.00,VWS V12.07,2013-04-08 01:09:00,
2013-04-07 20:11:00,36.0,28.5,29.88,ENE,66,0.0,2.0,74,0.00,,CLR,0.00,VWS V12.07,2013-04-08 01:11:00,
2013-04-07 20:12:00,35.9,28.4,29.88,ENE,66,0.0,2.0,74,0.00,,CLR,0.00,VWS V12.07,2013-04-08 01:12:00,
2013-04-07 20:14:00,35.9,28.4,29.88,ENE,66,0.0,2.0,74,0.00,,CLR,0.00,VWS V12.07,2013-04-08 01:14:00,
2013-04-07 20:15:00,35.9,28.4,29.88,ENE,66,0.0,2.0,74,0.00,,CLR,0.00,VWS V12.07,2013-04-08 01:15:00,
2013-04-07 20:16:00,35.9,28.4,29.88,ESE,120,0.0,4.0,74,0.00,,CLR,0.00,VWS V12.07,2013-04-08 01:16:00,
2013-04-07 20:18:00,35.8,28.3,29.88,ESE,120,0.0,0.0,74,0.00,,CLR,0.00,VWS V12.07,2013-04-08 01:18:00,
2013-04-07 20:20:00,35.8,28.3,29.88,ESE,120,0.0,4.0,74,0.00,,CLR,0.00,VWS V12.07,2013-04-08 01:20:00,
2013-04-07 20:22:00,35.8,28.3,29.88,ESE,120,0.0,4.0,74,0.00,,CLR,0.00,VWS V12.07,2013-04-08 01:22:00,
2013-04-07 20:23:00,35.8,28.3,29.88,NNE,25,2.0,4.0,74,0.00,,CLR,0.00,VWS V12.07,2013-04-08 01:23:00,
2013-04-07 20:25:00,35.8,28.3,29.88,East,92,2.0,4.0,74,0.00,,CLR,0.00,VWS V12.07,2013-04-08 01:25:00,
2013-04-07 20:27:00,35.8,28.3,29.88,East,79,0.0,4.0,74,0.00,,CLR,0.00,VWS V12.07,2013-04-08 01:27:00,
2013-04-07 20:28:00,35.8,28.3,29.88,ESE,121,2.0,2.0,74,0.00,,CLR,0.00,VWS V12.07,2013-04-08 01:28:00,
2013-04-07 20:31:00,35.8,28.3,29.88,ESE,121,0.0,2.0,74,0.00,,CLR,0.00,VWS V12.07,2013-04-08 01:31:00,
2013-04-07 20:32:00,35.8,28.3,29.88,ESE,121,1.0,2.0,74,0.00,,CLR,0.00,VWS V12.07,2013-04-08 01:32:00,
2013-04-07 20:33:00,35.6,28.1,29.88,ENE,59,0.0,3.0,74,0.00,,CLR,0.00,VWS V12.07,2013-04-08 01:33:00,
2013-04-07 20:37:00,35.6,28.1,29.88,NNE,12,2.0,3.0,74,0.00,,CLR,0.00,VWS V12.07,2013-04-08 01:37:00,
2013-04-07 20:38:00,35.8,28.3,29.88,NNE,12,1.0,3.0,74,0.00,,CLR,0.00,VWS V12.07,2013-04-08 01:38:00,
2013-04-07 20:42:00,35.8,28.3,29.88,North,10,2.0,2.0,74,0.00,,CLR,0.00,VWS V12.07,2013-04-08 01:42:00,
2013-04-07 20:43:00,35.8,28.3,29.88,NNE,27,3.0,3.0,74,0.00,,CLR,0.00,VWS V12.07,2013-04-08 01:43:00,
2013-04-07 20:45:00,35.8,28.3,29.88,NNE,31,1.0,3.0,74,0.00,,CLR,0.00,VWS V12.07,2013-04-08 01:45:00,
2013-04-07 20:47:00,35.8,28.0,29.88,NE,47,1.0,4.0,73,0.00,,CLR,0.00,VWS V12.07,2013-04-08 01:47:00,
2013-04-07 20:48:00,35.8,28.3,29.88,NE,47,1.0,4.0,74,0.00,,CLR,0.00,VWS V12.07,2013-04-08 01:48:00,
2013-04-07 20:50:00,35.8,28.3,29.88,NE,47,0.0,4.0,74,0.00,,CLR,0.00,VWS V12.07,2013-04-08 01:50:00,
2013-04-07 20:53:00,35.6,28.1,29.88,NE,37,1.0,4.0,74,0.00,,CLR,0.00,VWS V12.07,2013-04-08 01:53:00,
2013-04-07 20:54:00,35.6,28.1,29.88,East,84,0.0,4.0,74,0.00,,CLR,0.00,VWS V12.07,2013-04-08 01:54:00,
2013-04-07 20:55:00,35.6,28.1,29.88,East,84,0.0,4.0,74,0.00,,CLR,0.00,VWS V12.07,2013-04-08 01:55:00,
2013-04-07 20:58:00,35.6,28.1,29.88,ESE,115,0.0,6.0,74,0.00,,CLR,0.00,VWS V12.07,2013-04-08 01:58:00,
2013-04-07 20:59:00,35.6,28.1,29.88,East,97,0.0,6.0,74,0.00,,CLR,0.00,VWS V12.07,2013-04-08 01:59:00,
2013-04-07 21:00:00,35.6,28.1,29.88,SE,129,1.0,6.0,74,0.00,,CLR,0.00,VWS V12.07,2013-04-08 02:00:00,
2013-04-07 21:03:00,35.5,28.0,29.88,South,172,0.0,6.0,74,0.00,,CLR,0.00,VWS V12.07,2013-04-08 02:03:00,
2013-04-07 21:05:00,35.5,28.0,29.88,ESE,118,1.0,6.0,74,0.00,,CLR,0.00,VWS V12.07,2013-04-08 02:05:00,
2013-04-07 21:06:00,35.5,28.0,29.88,SE,134,2.0,6.0,74,0.00,,CLR,0.00,VWS V12.07,2013-04-08 02:06:00,
2013-04-07 21:10:00,35.3,28.2,29.88,SE,146,2.0,3.0,75,0.00,,CLR,0.00,VWS V12.07,2013-04-08 02:10:00,
2013-04-07 21:11:00,35.3,28.2,29.88,SE,146,1.0,3.0,75,0.00,,CLR,0.00,VWS V12.07,2013-04-08 02:11:00,
2013-04-07 21:15:00,34.7,27.9,29.88,SE,146,0.0,3.0,76,0.00,,CLR,0.00,VWS V12.07,2013-04-08 02:15:00,
2013-04-07 21:16:00,34.7,27.9,29.88,SE,146,0.0,3.0,76,0.00,,CLR,0.00,VWS V12.07,2013-04-08 02:16:00,
2013-04-07 21:17:00,34.7,27.9,29.88,ESE,117,3.0,3.0,76,0.00,,CLR,0.00,VWS V12.07,2013-04-08 02:17:00,
2013-04-07 21:20:00,34.6,27.8,29.88,South,178,0.0,3.0,76,0.00,,CLR,0.00,VWS V12.07,2013-04-08 02:20:00,
2013-04-07 21:21:00,34.6,27.8,29.88,South,178,1.0,3.0,76,0.00,,CLR,0.00,VWS V12.07,2013-04-08 02:21:00,
2013-04-07 21:22:00,34.4,27.6,29.88,South,178,1.0,3.0,76,0.00,,CLR,0.00,VWS V12.07,2013-04-08 02:22:00,
2013-04-07 21:26:00,34.1,27.7,29.88,SE,134,0.0,3.0,77,0.00,,CLR,0.00,VWS V12.07,2013-04-08 02:26:00,
2013-04-07 21:27:00,34.1,28.0,29.88,SE,131,0.0,4.0,78,0.00,,CLR,0.00,VWS V12.07,2013-04-08 02:27:00,
2013-04-07 21:28:00,34.1,28.0,29.88,SE,131,0.0,4.0,78,0.00,,CLR,0.00,VWS V12.07,2013-04-08 02:28:00,
2013-04-07 21:31:00,34.0,27.9,29.88,SSE,147,2.0,4.0,78,0.00,,CLR,0.00,VWS V12.07,2013-04-08 02:31:00,
2013-04-07 21:32:00,34.0,27.9,29.88,SSE,147,1.0,4.0,78,0.00,,CLR,0.00,VWS V12.07,2013-04-08 02:32:00,
2013-04-07 21:33:00,34.1,28.0,29.88,SSE,147,1.0,4.0,78,0.00,,CLR,0.00,VWS V12.07,2013-04-08 02:33:00,
2013-04-07 21:37:00,34.1,28.0,29.88,SSE,149,0.0,4.0,78,0.00,,CLR,0.00,VWS V12.07,2013-04-08 02:37:00,
2013-04-07 21:38:00,34.1,28.0,29.88,SSE,149,0.0,4.0,78,0.00,,CLR,0.00,VWS V12.07,2013-04-08 02:38:00,
2013-04-07 21:43:00,34.3,27.9,29.88,South,172,1.0,4.0,77,0.00,,CLR,0.00,VWS V12.07,2013-04-08 02:43:00,
2013-04-07 21:44:00,34.3,27.9,29.88,South,172,0.0,4.0,77,0.00,,CLR,0.00,VWS V12.07,2013-04-08 02:44:00,
2013-04-07 21:48:00,34.0,27.9,29.88,South,172,0.0,4.0,78,0.00,,CLR,0.00,VWS V12.07,2013-04-08 02:48:00,
2013-04-07 21:49:00,34.0,27.9,29.88,South,172,0.0,2.0,78,0.00,,CLR,0.00,VWS V12.07,2013-04-08 02:49:00,
2013-04-07 21:53:00,33.5,27.4,29.88,South,172,2.0,2.0,78,0.00,,CLR,0.00,VWS V12.07,2013-04-08 02:53:00,
2013-04-07 21:55:00,33.2,27.4,29.88,South,172,0.0,2.0,79,0.00,,CLR,0.00,VWS V12.07,2013-04-08 02:55:00,
2013-04-07 21:59:00,33.1,27.6,29.88,South,172,0.0,0.0,80,0.00,,CLR,0.00,VWS V12.07,2013-04-08 02:59:00,
2013-04-07 22:00:00,32.9,27.4,29.87,South,172,0.0,1.0,80,0.00,,CLR,0.00,VWS V12.07,2013-04-08 03:00:00,
2013-04-07 22:04:00,32.9,27.4,29.87,South,172,0.0,1.0,80,0.00,,CLR,0.00,VWS V12.07,2013-04-08 03:04:00,
2013-04-07 22:05:00,32.9,27.4,29.87,South,172,0.0,1.0,80,0.00,,CLR,0.00,VWS V12.07,2013-04-08 03:05:00,
2013-04-07 22:10:00,33.2,27.7,29.87,South,172,2.0,2.0,80,0.00,,CLR,0.00,VWS V12.07,2013-04-08 03:10:00,
2013-04-07 22:12:00,33.4,27.9,29.87,SE,139,0.0,5.0,80,0.00,,CLR,0.00,VWS V12.07,2013-04-08 03:12:00,
2013-04-07 22:15:00,33.7,27.9,29.86,SE,143,3.0,5.0,79,0.00,,CLR,0.00,VWS V12.07,2013-04-08 03:15:00,
2013-04-07 22:16:00,33.7,27.9,29.86,SE,143,2.0,5.0,79,0.00,,CLR,0.00,VWS V12.07,2013-04-08 03:16:00,
2013-04-07 22:18:00,33.8,28.0,29.86,SE,143,1.0,5.0,79,0.00,,CLR,0.00,VWS V12.07,2013-04-08 03:18:00,
2013-04-07 22:21:00,33.8,28.0,29.86,SE,141,2.0,3.0,79,0.00,,CLR,0.00,VWS V12.07,2013-04-08 03:21:00,
2013-04-07 22:23:00,34.1,28.0,29.86,SSE,149,2.0,7.0,78,0.00,,CLR,0.00,VWS V12.07,2013-04-08 03:23:00,
2013-04-07 22:27:00,34.3,28.2,29.86,SSE,153,2.0,7.0,78,0.00,,CLR,0.00,VWS V12.07,2013-04-08 03:27:00,
2013-04-07 22:28:00,34.3,28.2,29.86,SSE,153,2.0,3.0,78,0.00,,CLR,0.00,VWS V12.07,2013-04-08 03:28:00,
2013-04-07 22:32:00,34.1,28.0,29.86,SSE,153,1.0,3.0,78,0.00,,CLR,0.00,VWS V12.07,2013-04-08 03:32:00,
2013-04-07 22:33:00,34.0,27.9,29.86,SSE,153,0.0,3.0,78,0.00,,CLR,0.00,VWS V12.07,2013-04-08 03:33:00,
2013-04-07 22:37:00,33.7,27.6,29.86,SSE,153,0.0,3.0,78,0.00,,CLR,0.00,VWS V12.07,2013-04-08 03:37:00,
2013-04-07 22:38:00,33.7,27.9,29.86,SSE,153,2.0,3.0,79,0.00,,CLR,0.00,VWS V12.07,2013-04-08 03:38:00,
2013-04-07 22:39:00,33.4,27.6,29.86,SSE,153,0.0,2.0,79,0.00,,CLR,0.00,VWS V12.07,2013-04-08 03:39:00,
2013-04-07 22:42:00,33.1,27.6,29.86,SSE,153,1.0,2.0,80,0.00,,CLR,0.00,VWS V12.07,2013-04-08 03:42:00,
2013-04-07 22:43:00,33.1,27.6,29.86,SSE,153,1.0,2.0,80,0.00,,CLR,0.00,VWS V12.07,2013-04-08 03:43:00,
2013-04-07 22:45:00,32.9,27.4,29.86,SSE,153,0.0,2.0,80,0.00,,CLR,0.00,VWS V12.07,2013-04-08 03:45:00,
2013-04-07 22:47:00,32.8,27.3,29.86,SSE,153,0.0,2.0,80,0.00,,CLR,0.00,VWS V12.07,2013-04-08 03:47:00,
2013-04-07 22:48:00,32.8,27.3,29.86,SSE,153,0.0,2.0,80,0.00,,CLR,0.00,VWS V12.07,2013-04-08 03:48:00,
2013-04-07 22:51:00,32.8,27.3,29.86,SSE,153,0.0,1.0,80,0.00,,CLR,0.00,VWS V12.07,2013-04-08 03:51:00,
2013-04-07 22:52:00,32.7,27.5,29.86,SSE,153,0.0,1.0,81,0.00,,CLR,0.00,VWS V12.07,2013-04-08 03:52:00,
2013-04-07 22:53:00,32.7,27.5,29.86,SSE,153,0.0,1.0,81,0.00,,CLR,0.00,VWS V12.07,2013-04-08 03:53:00,
2013-04-07 22:56:00,32.7,27.5,29.86,SSE,153,0.0,1.0,81,0.00,,CLR,0.00,VWS V12.07,2013-04-08 03:56:00,
2013-04-07 22:57:00,32.7,27.5,29.86,SSE,153,0.0,1.0,81,0.00,,CLR,0.00,VWS V12.07,2013-04-08 03:57:00,
2013-04-07 22:58:00,32.7,27.5,29.86,SSE,153,0.0,1.0,81,0.00,,CLR,0.00,VWS V12.07,2013-04-08 03:58:00,
2013-04-07 23:00:00,32.7,27.5,29.85,SSE,153,0.0,0.0,81,0.00,,CLR,0.00,VWS V12.07,2013-04-08 04:00:00,
2013-04-07 23:04:00,32.8,27.6,29.85,SSE,153,0.0,0.0,81,0.00,,CLR,0.00,VWS V12.07,2013-04-08 04:04:00,
2013-04-07 23:05:00,32.8,27.6,29.85,SSE,153,0.0,0.0,81,0.00,,CLR,0.00,VWS V12.07,2013-04-08 04:05:00,
2013-04-07 23:10:00,32.7,27.5,29.85,SSE,153,0.0,0.0,81,0.00,,CLR,0.00,VWS V12.07,2013-04-08 04:10:00,
2013-04-07 23:11:00,32.7,27.5,29.85,SSE,153,0.0,0.0,81,0.00,,CLR,0.00,VWS V12.07,2013-04-08 04:11:00,
2013-04-07 23:15:00,32.5,27.3,29.85,SSE,153,0.0,0.0,81,0.00,,CLR,0.00,VWS V12.07,2013-04-08 04:15:00,
2013-04-07 23:16:00,32.5,27.3,29.85,SSE,153,0.0,0.0,81,0.00,,CLR,0.00,VWS V12.07,2013-04-08 04:16:00,
2013-04-07 23:20:00,32.4,27.2,29.85,SSE,153,0.0,0.0,81,0.00,,CLR,0.00,VWS V12.07,2013-04-08 04:20:00,
2013-04-07 23:22:00,32.2,27.0,29.85,SSE,153,0.0,0.0,81,0.00,,CLR,0.00,VWS V12.07,2013-04-08 04:22:00,
2013-04-07 23:25:00,31.8,26.9,29.85,SSE,153,0.0,0.0,82,0.00,,CLR,0.00,VWS V12.07,2013-04-08 04:25:00,
2013-04-07 23:26:00,31.8,26.9,29.85,SSE,153,0.0,0.0,82,0.00,,CLR,0.00,VWS V12.07,2013-04-08 04:26:00,
2013-04-07 23:27:00,31.6,26.8,29.85,SSE,153,0.0,0.0,82,0.00,,CLR,0.00,VWS V12.07,2013-04-08 04:27:00,
2013-04-07 23:30:00,31.3,26.8,29.85,SSE,153,0.0,0.0,83,0.00,,CLR,0.00,VWS V12.07,2013-04-08 04:30:00,
2013-04-07 23:31:00,31.2,26.6,29.85,SSE,153,0.0,0.0,83,0.00,,CLR,0.00,VWS V12.07,2013-04-08 04:31:00,
2013-04-07 23:32:00,31.2,26.6,29.85,SSE,153,0.0,0.0,83,0.00,,CLR,0.00,VWS V12.07,2013-04-08 04:32:00,
2013-04-07 23:36:00,31.0,26.7,29.85,SSE,153,0.0,1.0,84,0.00,,CLR,0.00,VWS V12.07,2013-04-08 04:36:00,
2013-04-07 23:37:00,30.9,26.6,29.85,SSE,153,0.0,1.0,84,0.00,,CLR,0.00,VWS V12.07,2013-04-08 04:37:00,
2013-04-07 23:41:00,31.0,27.0,29.85,SSE,153,0.0,2.0,85,0.00,,CLR,0.00,VWS V12.07,2013-04-08 04:41:00,
2013-04-07 23:42:00,31.0,27.0,29.85,SSE,153,0.0,2.0,85,0.00,,CLR,0.00,VWS V12.07,2013-04-08 04:42:00,
2013-04-07 23:43:00,31.0,27.0,29.85,SSE,153,0.0,2.0,85,0.00,,CLR,0.00,VWS V12.07,2013-04-08 04:43:00,
2013-04-07 23:47:00,31.0,27.0,29.85,SSE,153,0.0,2.0,85,0.00,,CLR,0.00,VWS V12.07,2013-04-08 04:47:00,
2013-04-07 23:48:00,31.0,27.0,29.85,SSE,153,0.0,0.0,85,0.00,,CLR,0.00,VWS V12.07,2013-04-08 04:48:00,
2013-04-07 23:52:00,30.9,26.9,29.85,SSE,153,0.0,0.0,85,0.00,,CLR,0.00,VWS V12.07,2013-04-08 04:52:00,
2013-04-07 23:53:00,30.9,26.9,29.85,SSE,153,0.0,0.0,85,0.00,,CLR,0.00,VWS V12.07,2013-04-08 04:53:00,
2013-04-07 23:57:00,31.0,27.0,29.85,SSE,153,0.0,0.0,85,0.00,,CLR,0.00,VWS V12.07,2013-04-08 04:57:00,
2013-04-07 23:58:00,31.0,27.0,29.85,SSE,153,0.0,0.0,85,0.00,,CLR,0.00,VWS V12.07,2013-04-08 04:58:00,